| time (UTC) | temp F | wind direction | speed knots | gust knots | rain 1hr in | rain 24hr in | rain mn in | humidity % | barometer mb |
| 20260504202801 | 53 | 270 | 0.0 | 0.0 | 0.00 | 0.00 | 0.00 | 89 | 1014.5 |
| 20260504202702 | 53 | 270 | 0.0 | 0.0 | 0.00 | 0.00 | 0.00 | 89 | 1014.6 |
| 20260504202602 | 53 | 270 | 0.0 | 0.0 | 0.00 | 0.00 | 0.00 | 89 | 1014.6 |
| 20260504202502 | 53 | 262 | 0.0 | 0.0 | 0.00 | 0.00 | 0.00 | 89 | 1014.5 |
| 20260504202402 | 53 | 262 | 0.0 | 0.0 | 0.00 | 0.00 | 0.00 | 89 | 1014.5 |
| 20260504202301 | 53 | 262 | 0.0 | 0.0 | 0.00 | 0.00 | 0.00 | 89 | 1014.5 |
| 20260504202202 | 53 | 222 | 0.0 | 0.0 | 0.00 | 0.00 | 0.00 | 89 | 1014.5 |
| 20260504202101 | 53 | 222 | 0.0 | 0.0 | 0.00 | 0.00 | 0.00 | 89 | 1014.5 |
| 20260504202002 | 53 | 222 | 0.0 | 0.0 | 0.00 | 0.00 | 0.00 | 89 | 1014.5 |
| 20260504201902 | 53 | 222 | 0.0 | 0.0 | 0.00 | 0.00 | 0.00 | 89 | 1014.5 |
| 20260504201802 | 53 | 222 | 0.0 | 0.0 | 0.00 | 0.00 | 0.00 | 89 | 1014.5 |
| 20260504201702 | 53 | 247 | 0.0 | 0.0 | 0.00 | 0.00 | 0.00 | 89 | 1014.4 |
| 20260504201602 | 53 | 247 | 0.0 | 0.0 | 0.00 | 0.00 | 0.00 | 89 | 1014.4 |
| 20260504201502 | 53 | 247 | 0.0 | 0.0 | 0.00 | 0.00 | 0.00 | 89 | 1014.4 |
| 20260504201401 | 53 | 245 | 0.0 | 0.0 | 0.00 | 0.00 | 0.00 | 89 | 1014.4 |
| 20260504201302 | 53 | 245 | 0.0 | 0.0 | 0.00 | 0.00 | 0.00 | 89 | 1014.5 |
| 20260504201201 | 53 | 245 | 0.0 | 0.0 | 0.00 | 0.00 | 0.00 | 89 | 1014.5 |
| 20260504201102 | 53 | 245 | 0.0 | 0.0 | 0.00 | 0.00 | 0.00 | 89 | 1014.5 |
| 20260504201001 | 53 | 245 | 0.0 | 0.0 | 0.00 | 0.00 | 0.00 | 89 | 1014.5 |
| 20260504200902 | 53 | 245 | 0.0 | 0.0 | 0.00 | 0.00 | 0.00 | 89 | 1014.5 |
| 20260504200702 | 53 | 245 | 0.0 | 0.0 | 0.00 | 0.00 | 0.00 | 89 | 1014.4 |
| 20260504200602 | 53 | 245 | 0.0 | 0.0 | 0.00 | 0.00 | 0.00 | 89 | 1014.5 |
| 20260504200502 | 53 | 245 | 0.0 | 0.0 | 0.00 | 0.00 | 0.00 | 89 | 1014.5 |
| 20260504200402 | 53 | 245 | 0.0 | 0.0 | 0.00 | 0.00 | 0.00 | 89 | 1014.5 |
| 20260504200301 | 53 | 245 | 0.0 | 0.0 | 0.00 | 0.00 | 0.00 | 89 | 1014.4 |
| 20260504200202 | 53 | 245 | 0.0 | 0.0 | 0.00 | 0.00 | 0.00 | 89 | 1014.5 |
| 20260504200002 | 54 | 245 | 0.0 | 0.0 | 0.00 | 0.00 | 0.00 | 89 | 1014.4 |
| 20260504195901 | 54 | 245 | 0.0 | 0.0 | 0.00 | 0.00 | 0.00 | 89 | 1014.4 |
| 20260504195802 | 54 | 245 | 0.0 | 0.0 | 0.00 | 0.00 | 0.00 | 89 | 1014.4 |
| 20260504195702 | 54 | 245 | 0.0 | 0.0 | 0.00 | 0.00 | 0.00 | 89 | 1014.4 |
| 20260504195602 | 54 | 245 | 0.0 | 0.0 | 0.00 | 0.00 | 0.00 | 89 | 1014.3 |
| 20260504195502 | 54 | 245 | 0.0 | 0.0 | 0.00 | 0.00 | 0.00 | 89 | 1014.4 |
| 20260504195401 | 54 | 245 | 0.0 | 0.0 | 0.00 | 0.00 | 0.00 | 89 | 1014.4 |
| 20260504195304 | 54 | 245 | 0.0 | 0.0 | 0.00 | 0.00 | 0.00 | 89 | 1014.4 |
| 20260504195201 | 54 | 247 | 0.0 | 0.0 | 0.00 | 0.00 | 0.00 | 89 | 1014.4 |
| 20260504195102 | 54 | 247 | 0.0 | 0.0 | 0.00 | 0.00 | 0.00 | 89 | 1014.4 |
| 20260504195002 | 54 | 247 | 0.0 | 0.0 | 0.00 | 0.00 | 0.00 | 89 | 1014.3 |
| 20260504194901 | 54 | 87 | 0.0 | 0.0 | 0.00 | 0.00 | 0.00 | 89 | 1014.3 |
| 20260504194802 | 54 | 87 | 0.0 | 0.0 | 0.00 | 0.00 | 0.00 | 89 | 1014.4 |
| 20260504194701 | 54 | 5 | 0.0 | 0.0 | 0.00 | 0.00 | 0.00 | 89 | 1014.3 |
| 20260504194602 | 54 | 5 | 0.0 | 0.0 | 0.00 | 0.00 | 0.00 | 89 | 1014.3 |
| 20260504194502 | 54 | 60 | 0.0 | 0.0 | 0.00 | 0.00 | 0.00 | 89 | 1014.3 |
| 20260504194402 | 54 | 60 | 0.0 | 0.0 | 0.00 | 0.00 | 0.00 | 89 | 1014.3 |
| 20260504194302 | 54 | 60 | 0.0 | 0.0 | 0.00 | 0.00 | 0.00 | 89 | 1014.3 |
| 20260504194202 | 54 | 145 | 0.0 | 0.0 | 0.00 | 0.00 | 0.00 | 89 | 1014.2 |
| 20260504194101 | 54 | 145 | 0.0 | 0.0 | 0.00 | 0.00 | 0.00 | 89 | 1014.3 |
| 20260504194002 | 54 | 145 | 0.0 | 0.0 | 0.00 | 0.00 | 0.00 | 89 | 1014.3 |
| 20260504193901 | 54 | 195 | 0.0 | 0.0 | 0.00 | 0.00 | 0.00 | 89 | 1014.3 |
| 20260504193802 | 54 | 195 | 0.0 | 0.0 | 0.00 | 0.00 | 0.00 | 89 | 1014.2 |
| 20260504193702 | 54 | 202 | 0.0 | 0.0 | 0.00 | 0.00 | 0.00 | 89 | 1014.3 |
| 20260504193602 | 54 | 202 | 0.0 | 0.0 | 0.00 | 0.00 | 0.00 | 89 | 1014.2 |
| 20260504193502 | 54 | 217 | 0.0 | 0.0 | 0.00 | 0.00 | 0.00 | 89 | 1014.2 |
| 20260504193401 | 54 | 217 | 0.0 | 0.0 | 0.00 | 0.00 | 0.00 | 89 | 1014.2 |
| 20260504193302 | 54 | 217 | 0.0 | 0.0 | 0.00 | 0.00 | 0.00 | 89 | 1014.1 |
| 20260504193201 | 54 | 205 | 3.5 | 0.0 | 0.00 | 0.00 | 0.00 | 89 | 1014.1 |
| 20260504193102 | 54 | 205 | 3.5 | 0.0 | 0.00 | 0.00 | 0.00 | 89 | 1014.1 |
| 20260504193001 | 54 | 205 | 3.5 | 0.0 | 0.00 | 0.00 | 0.00 | 89 | 1014.1 |
| 20260504192937 | 54 | 205 | 4.3 | 0.0 | 0.00 | 0.00 | 0.00 | 89 | 1014.1 |
| 20260504192801 | 54 | 205 | 4.3 | 0.0 | 0.00 | 0.00 | 0.00 | 89 | 1014.0 |
| 20260504192702 | 54 | 205 | 4.3 | 0.0 | 0.00 | 0.00 | 0.00 | 89 | 1014.0 |
| 20260504192637 | 54 | 205 | 4.3 | 0.0 | 0.00 | 0.00 | 0.00 | 89 | 1014.0 |
| 20260504192501 | 54 | 205 | 4.3 | 0.0 | 0.00 | 0.00 | 0.00 | 89 | 1014.0 |
| 20260504192402 | 54 | 205 | 4.3 | 0.0 | 0.00 | 0.00 | 0.00 | 89 | 1014.0 |
| 20260504192301 | 54 | 205 | 4.3 | 0.0 | 0.00 | 0.00 | 0.00 | 89 | 1014.1 |
| 20260504192202 | 54 | 172 | 2.6 | 0.0 | 0.00 | 0.00 | 0.00 | 89 | 1014.1 |
| 20260504192101 | 54 | 172 | 2.6 | 0.0 | 0.00 | 0.00 | 0.00 | 89 | 1014.1 |
| 20260504192002 | 54 | 172 | 2.6 | 0.0 | 0.00 | 0.00 | 0.00 | 89 | 1014.1 |
| 20260504191902 | 54 | 147 | 0.0 | 0.0 | 0.00 | 0.00 | 0.00 | 89 | 1014.2 |
| 20260504191801 | 54 | 147 | 0.0 | 0.0 | 0.00 | 0.00 | 0.00 | 89 | 1014.2 |
| 20260504191702 | 54 | 147 | 0.0 | 0.0 | 0.00 | 0.00 | 0.00 | 89 | 1014.2 |
| 20260504191602 | 54 | 125 | 0.0 | 0.0 | 0.00 | 0.00 | 0.00 | 88 | 1014.2 |
| 20260504191502 | 54 | 125 | 0.0 | 0.0 | 0.00 | 0.00 | 0.00 | 88 | 1014.3 |
| 20260504191401 | 54 | 95 | 0.0 | 0.0 | 0.00 | 0.00 | 0.00 | 88 | 1014.3 |
| 20260504191302 | 54 | 95 | 0.0 | 0.0 | 0.00 | 0.00 | 0.00 | 88 | 1013.2 |
| 20260504191201 | 54 | 60 | 4.3 | 0.0 | 0.00 | 0.00 | 0.00 | 88 | 1013.2 |
| 20260504191102 | 54 | 60 | 4.3 | 0.0 | 0.00 | 0.00 | 0.00 | 88 | 1013.2 |
| 20260504191001 | 54 | 60 | 4.3 | 0.0 | 0.00 | 0.00 | 0.00 | 88 | 1013.2 |
| 20260504190902 | 54 | 60 | 4.3 | 0.0 | 0.00 | 0.00 | 0.00 | 88 | 1013.2 |
| 20260504190802 | 54 | 60 | 4.3 | 0.0 | 0.00 | 0.00 | 0.00 | 88 | 1013.2 |
| 20260504190702 | 55 | 55 | 2.6 | 0.0 | 0.00 | 0.00 | 0.00 | 87 | 1013.2 |
| 20260504190601 | 55 | 55 | 2.6 | 0.0 | 0.00 | 0.00 | 0.00 | 87 | 1013.2 |
| 20260504190501 | 55 | 55 | 2.6 | 0.0 | 0.00 | 0.00 | 0.00 | 87 | 1013.2 |
| 20260504190402 | 55 | 55 | 2.6 | 0.0 | 0.00 | 0.00 | 0.00 | 87 | 1013.2 |
| 20260504190301 | 55 | 55 | 2.6 | 0.0 | 0.00 | 0.00 | 0.00 | 87 | 1013.2 |
| 20260504190202 | 55 | 55 | 2.6 | 0.0 | 0.00 | 0.00 | 0.00 | 87 | 1013.2 |
| 20260504190002 | 55 | 60 | 3.5 | 0.0 | 0.00 | 0.00 | 0.00 | 87 | 1013.2 |
| 20260504185901 | 55 | 62 | 5.2 | 0.0 | 0.00 | 0.00 | 0.00 | 87 | 1013.2 |
| 20260504185801 | 55 | 62 | 5.2 | 0.0 | 0.00 | 0.00 | 0.00 | 87 | 1013.2 |
| 20260504185702 | 55 | 62 | 5.2 | 0.0 | 0.00 | 0.00 | 0.00 | 87 | 1013.2 |
| 20260504185601 | 55 | 57 | 5.2 | 0.0 | 0.00 | 0.00 | 0.00 | 86 | 1013.2 |
| 20260504185502 | 55 | 57 | 5.2 | 0.0 | 0.00 | 0.00 | 0.00 | 86 | 1013.2 |
| 20260504185401 | 55 | 57 | 5.2 | 0.0 | 0.00 | 0.00 | 0.00 | 86 | 1013.2 |
| 20260504185304 | 55 | 62 | 7.0 | 0.0 | 0.00 | 0.00 | 0.00 | 86 | 1013.2 |
| 20260504185202 | 55 | 62 | 7.0 | 0.0 | 0.00 | 0.00 | 0.00 | 86 | 1013.2 |
| 20260504185102 | 55 | 75 | 6.1 | 0.0 | 0.00 | 0.00 | 0.00 | 86 | 1013.2 |
| 20260504185002 | 55 | 75 | 6.1 | 0.0 | 0.00 | 0.00 | 0.00 | 86 | 1013.2 |
| 20260504184902 | 55 | 80 | 2.6 | 0.0 | 0.00 | 0.00 | 0.00 | 86 | 1013.2 |
| 20260504184802 | 55 | 75 | 5.2 | 0.0 | 0.00 | 0.00 | 0.00 | 85 | 1013.2 |
| 20260504184701 | 55 | 75 | 5.2 | 0.0 | 0.00 | 0.00 | 0.00 | 85 | 1013.2 |
| 20260504184602 | 56 | 62 | 7.0 | 0.0 | 0.00 | 0.00 | 0.00 | 84 | 1013.2 |
| 20260504184501 | 56 | 62 | 7.0 | 0.0 | 0.00 | 0.00 | 0.00 | 84 | 1013.2 |
| 20260504184402 | 56 | 62 | 7.0 | 0.0 | 0.00 | 0.00 | 0.00 | 84 | 1013.2 |
| 20260504184301 | 56 | 62 | 7.0 | 0.0 | 0.00 | 0.00 | 0.00 | 84 | 1013.2 |
| 20260504184202 | 56 | 62 | 7.0 | 0.0 | 0.00 | 0.00 | 0.00 | 84 | 1013.2 |
| 20260504184101 | 56 | 62 | 7.0 | 0.0 | 0.00 | 0.00 | 0.00 | 84 | 1013.2 |
| 20260504184002 | 56 | 62 | 7.0 | 0.0 | 0.00 | 0.00 | 0.00 | 84 | 1013.2 |
| 20260504183901 | 56 | 62 | 7.0 | 0.0 | 0.00 | 0.00 | 0.00 | 84 | 1013.2 |
| 20260504183802 | 56 | 75 | 4.3 | 0.0 | 0.00 | 0.00 | 0.00 | 83 | 1013.2 |
| 20260504183703 | 56 | 75 | 4.3 | 0.0 | 0.00 | 0.00 | 0.00 | 83 | 1013.2 |
| 20260504183602 | 56 | 75 | 4.3 | 0.0 | 0.00 | 0.00 | 0.00 | 83 | 1013.2 |
| 20260504183502 | 56 | 75 | 4.3 | 0.0 | 0.00 | 0.00 | 0.00 | 83 | 1013.2 |
| 20260504183401 | 56 | 75 | 4.3 | 0.0 | 0.00 | 0.00 | 0.00 | 83 | 1013.2 |
| 20260504183302 | 56 | 75 | 4.3 | 0.0 | 0.00 | 0.00 | 0.00 | 83 | 1013.2 |
| 20260504183202 | 56 | 75 | 4.3 | 0.0 | 0.00 | 0.00 | 0.00 | 83 | 1013.2 |
| 20260504183102 | 56 | 75 | 4.3 | 0.0 | 0.00 | 0.00 | 0.00 | 83 | 1013.2 |
| 20260504183001 | 57 | 75 | 5.2 | 0.0 | 0.00 | 0.00 | 0.00 | 82 | 1013.2 |
| 20260504182902 | 57 | 75 | 5.2 | 0.0 | 0.00 | 0.00 | 0.00 | 82 | 1013.2 |
| 20260504182801 | 57 | 75 | 5.2 | 0.0 | 0.00 | 0.00 | 0.00 | 82 | 1013.2 |
| 20260504182702 | 57 | 75 | 5.2 | 0.0 | 0.00 | 0.00 | 0.00 | 82 | 1013.2 |
| 20260504182601 | 57 | 77 | 3.5 | 0.0 | 0.00 | 0.00 | 0.00 | 82 | 1013.2 |
| 20260504182502 | 57 | 77 | 3.5 | 0.0 | 0.00 | 0.00 | 0.00 | 82 | 1013.2 |
| 20260504182402 | 57 | 77 | 3.5 | 0.0 | 0.00 | 0.00 | 0.00 | 82 | 1013.2 |
| 20260504182301 | 57 | 80 | 0.0 | 0.0 | 0.00 | 0.00 | 0.00 | 82 | 1013.2 |
| 20260504182202 | 57 | 80 | 0.0 | 0.0 | 0.00 | 0.00 | 0.00 | 82 | 1013.2 |
| 20260504182101 | 57 | 80 | 0.0 | 0.0 | 0.00 | 0.00 | 0.00 | 82 | 1013.2 |
| 20260504182002 | 57 | 80 | 0.0 | 0.0 | 0.00 | 0.00 | 0.00 | 82 | 1013.2 |
| 20260504181901 | 57 | 80 | 0.0 | 0.0 | 0.00 | 0.00 | 0.00 | 82 | 1013.2 |
| 20260504181802 | 57 | 82 | 3.5 | 0.0 | 0.00 | 0.00 | 0.00 | 82 | 1013.2 |
| 20260504181702 | 57 | 82 | 3.5 | 0.0 | 0.00 | 0.00 | 0.00 | 82 | 1013.2 |
| 20260504181601 | 57 | 82 | 0.0 | 0.0 | 0.00 | 0.00 | 0.00 | 81 | 1013.2 |
| 20260504181502 | 57 | 82 | 0.0 | 0.0 | 0.00 | 0.00 | 0.00 | 81 | 1013.2 |
| 20260504181401 | 57 | 82 | 0.0 | 0.0 | 0.00 | 0.00 | 0.00 | 81 | 1013.2 |
| 20260504181302 | 57 | 90 | 5.2 | 0.0 | 0.00 | 0.00 | 0.00 | 81 | 1013.2 |
| 20260504181201 | 57 | 90 | 5.2 | 0.0 | 0.00 | 0.00 | 0.00 | 81 | 1013.2 |
| 20260504181102 | 57 | 92 | 5.2 | 0.0 | 0.00 | 0.00 | 0.00 | 81 | 1013.2 |
| 20260504181001 | 57 | 92 | 5.2 | 0.0 | 0.00 | 0.00 | 0.00 | 81 | 1013.2 |
| 20260504180902 | 57 | 92 | 5.2 | 0.0 | 0.00 | 0.00 | 0.00 | 81 | 1013.2 |
| 20260504180802 | 57 | 95 | 1.7 | 0.0 | 0.00 | 0.00 | 0.00 | 81 | 1013.2 |
| 20260504180702 | 57 | 95 | 1.7 | 0.0 | 0.00 | 0.00 | 0.00 | 81 | 1013.2 |
| 20260504180602 | 57 | 95 | 1.7 | 0.0 | 0.00 | 0.00 | 0.00 | 81 | 1013.2 |
| 20260504180502 | 57 | 145 | 0.0 | 0.0 | 0.00 | 0.00 | 0.00 | 81 | 1013.2 |
| 20260504180402 | 57 | 145 | 0.0 | 0.0 | 0.00 | 0.00 | 0.00 | 81 | 1013.2 |
| 20260504180301 | 57 | 145 | 0.0 | 0.0 | 0.00 | 0.00 | 0.00 | 81 | 1013.2 |
| 20260504180202 | 57 | 145 | 0.0 | 0.0 | 0.00 | 0.00 | 0.00 | 81 | 1013.2 |
| 20260504180002 | 57 | 165 | 0.0 | 0.0 | 0.00 | 0.00 | 0.00 | 81 | 1013.2 |
| 20260504175902 | 57 | 165 | 0.0 | 0.0 | 0.00 | 0.00 | 0.00 | 81 | 1013.2 |
| 20260504175801 | 57 | 165 | 0.0 | 0.0 | 0.00 | 0.00 | 0.00 | 81 | 1013.2 |
| 20260504175702 | 57 | 177 | 0.0 | 0.0 | 0.00 | 0.00 | 0.00 | 81 | 1013.2 |
| 20260504175601 | 57 | 177 | 0.0 | 0.0 | 0.00 | 0.00 | 0.00 | 81 | 1013.2 |
| 20260504175502 | 57 | 175 | 0.0 | 0.0 | 0.00 | 0.00 | 0.00 | 81 | 1013.2 |
| 20260504175401 | 57 | 175 | 0.0 | 0.0 | 0.00 | 0.00 | 0.00 | 81 | 1013.2 |
| 20260504175304 | 57 | 195 | 0.0 | 0.0 | 0.00 | 0.00 | 0.00 | 81 | 1013.2 |
| 20260504175202 | 57 | 195 | 0.0 | 0.0 | 0.00 | 0.00 | 0.00 | 81 | 1013.2 |
| 20260504175101 | 57 | 195 | 0.0 | 0.0 | 0.00 | 0.00 | 0.00 | 81 | 1013.2 |
| 20260504175002 | 57 | 195 | 0.0 | 0.0 | 0.00 | 0.00 | 0.00 | 81 | 1013.2 |
| 20260504174901 | 57 | 195 | 0.0 | 0.0 | 0.00 | 0.00 | 0.00 | 81 | 1013.2 |
| 20260504174802 | 57 | 192 | 0.0 | 0.0 | 0.00 | 0.00 | 0.00 | 80 | 1013.2 |
| 20260504174701 | 57 | 192 | 0.0 | 0.0 | 0.00 | 0.00 | 0.00 | 80 | 1013.2 |
| 20260504174602 | 57 | 192 | 0.0 | 0.0 | 0.00 | 0.00 | 0.00 | 80 | 1013.2 |
| 20260504174502 | 57 | 210 | 0.0 | 0.0 | 0.00 | 0.00 | 0.00 | 80 | 1013.2 |
| 20260504174402 | 57 | 210 | 0.0 | 0.0 | 0.00 | 0.00 | 0.00 | 80 | 1013.2 |
| 20260504174302 | 58 | 140 | 0.0 | 0.0 | 0.00 | 0.00 | 0.00 | 80 | 1013.2 |
| 20260504174201 | 58 | 140 | 0.0 | 0.0 | 0.00 | 0.00 | 0.00 | 80 | 1013.2 |
| 20260504174102 | 58 | 140 | 0.0 | 0.0 | 0.00 | 0.00 | 0.00 | 80 | 1013.2 |
| 20260504174001 | 58 | 140 | 0.0 | 0.0 | 0.00 | 0.00 | 0.00 | 80 | 1013.2 |
| 20260504173902 | 58 | 140 | 0.0 | 0.0 | 0.00 | 0.00 | 0.00 | 80 | 1013.2 |
| 20260504173801 | 58 | 140 | 0.0 | 0.0 | 0.00 | 0.00 | 0.00 | 80 | 1013.2 |
| 20260504173702 | 58 | 132 | 0.0 | 0.0 | 0.00 | 0.00 | 0.00 | 79 | 1013.2 |
| 20260504173602 | 58 | 132 | 0.0 | 0.0 | 0.00 | 0.00 | 0.00 | 79 | 1013.2 |
| 20260504173502 | 58 | 210 | 0.0 | 0.0 | 0.00 | 0.00 | 0.00 | 79 | 1013.2 |
| 20260504173402 | 58 | 210 | 0.0 | 0.0 | 0.00 | 0.00 | 0.00 | 79 | 1013.2 |
| 20260504173303 | 58 | 210 | 0.0 | 0.0 | 0.00 | 0.00 | 0.00 | 79 | 1013.2 |
| 20260504173202 | 58 | 250 | 0.0 | 0.0 | 0.00 | 0.00 | 0.00 | 78 | 1013.2 |
| 20260504173102 | 58 | 250 | 0.0 | 0.0 | 0.00 | 0.00 | 0.00 | 78 | 1013.2 |
| 20260504173001 | 58 | 250 | 0.0 | 0.0 | 0.00 | 0.00 | 0.00 | 78 | 1013.2 |
| 20260504172902 | 58 | 250 | 0.0 | 0.0 | 0.00 | 0.00 | 0.00 | 78 | 1013.2 |
| 20260504172801 | 58 | 285 | 0.0 | 0.0 | 0.00 | 0.00 | 0.00 | 79 | 1013.2 |
| 20260504172702 | 58 | 285 | 0.0 | 0.0 | 0.00 | 0.00 | 0.00 | 79 | 1013.2 |
| 20260504172601 | 58 | 285 | 0.0 | 0.0 | 0.00 | 0.00 | 0.00 | 79 | 1013.2 |
| 20260504172502 | 58 | 327 | 0.0 | 0.0 | 0.00 | 0.00 | 0.00 | 78 | 1013.2 |
| 20260504172402 | 58 | 327 | 0.0 | 0.0 | 0.00 | 0.00 | 0.00 | 78 | 1013.2 |
| 20260504172301 | 58 | 327 | 0.0 | 0.0 | 0.00 | 0.00 | 0.00 | 78 | 1013.2 |
| 20260504172202 | 58 | 327 | 0.0 | 0.0 | 0.00 | 0.00 | 0.00 | 78 | 1013.2 |
| 20260504172101 | 58 | 327 | 0.0 | 0.0 | 0.00 | 0.00 | 0.00 | 78 | 1013.2 |
| 20260504172002 | 58 | 332 | 0.0 | 0.0 | 0.00 | 0.00 | 0.00 | 78 | 1013.2 |
| 20260504171902 | 58 | 340 | 0.0 | 0.0 | 0.00 | 0.00 | 0.00 | 79 | 1013.2 |
| 20260504171802 | 58 | 340 | 0.0 | 0.0 | 0.00 | 0.00 | 0.00 | 79 | 1013.2 |
| 20260504171701 | 58 | 340 | 0.0 | 0.0 | 0.00 | 0.00 | 0.00 | 79 | 1013.2 |
| 20260504171602 | 58 | 340 | 0.0 | 0.0 | 0.00 | 0.00 | 0.00 | 79 | 1013.2 |
| 20260504171502 | 58 | 340 | 0.0 | 0.0 | 0.00 | 0.00 | 0.00 | 79 | 1013.2 |
| 20260504171401 | 58 | 0 | 2.6 | 0.0 | 0.00 | 0.00 | 0.00 | 79 | 1013.2 |
| 20260504171302 | 58 | 0 | 2.6 | 0.0 | 0.00 | 0.00 | 0.00 | 79 | 1013.2 |
| 20260504171201 | 58 | 0 | 2.6 | 0.0 | 0.00 | 0.00 | 0.00 | 79 | 1013.2 |
| 20260504171102 | 58 | 12 | 0.0 | 0.0 | 0.00 | 0.00 | 0.00 | 79 | 1013.2 |
| 20260504171001 | 58 | 12 | 0.0 | 0.0 | 0.00 | 0.00 | 0.00 | 79 | 1013.2 |
| 20260504170902 | 58 | 20 | 5.2 | 0.0 | 0.00 | 0.00 | 0.00 | 79 | 1013.2 |
| 20260504170801 | 58 | 20 | 5.2 | 0.0 | 0.00 | 0.00 | 0.00 | 79 | 1013.2 |
| 20260504170702 | 59 | 25 | 5.2 | 0.0 | 0.00 | 0.00 | 0.00 | 78 | 1013.2 |
| 20260504170601 | 59 | 25 | 5.2 | 0.0 | 0.00 | 0.00 | 0.00 | 78 | 1013.2 |
| 20260504170502 | 59 | 25 | 5.2 | 0.0 | 0.00 | 0.00 | 0.00 | 78 | 1013.2 |
| 20260504170402 | 59 | 30 | 7.0 | 0.0 | 0.00 | 0.00 | 0.00 | 77 | 1013.2 |
| 20260504170301 | 59 | 30 | 7.0 | 0.0 | 0.00 | 0.00 | 0.00 | 77 | 1013.2 |
| 20260504170202 | 59 | 30 | 7.0 | 0.0 | 0.00 | 0.00 | 0.00 | 77 | 1013.2 |
| 20260504160402 | 62 | 80 | 3.5 | 0.0 | 0.00 | 0.00 | 0.00 | 68 | 1013.1 |
| 20260504160301 | 62 | 80 | 3.5 | 0.0 | 0.00 | 0.00 | 0.00 | 68 | 1013.1 |
| 20260504160202 | 62 | 80 | 3.5 | 0.0 | 0.00 | 0.00 | 0.00 | 68 | 1013.1 |
| 20260504151102 | 64 | 70 | 4.3 | 0.0 | 0.00 | 0.00 | 0.00 | 62 | 1013.2 |
| 20260504151002 | 64 | 70 | 4.3 | 0.0 | 0.00 | 0.00 | 0.00 | 62 | 1013.2 |
| 20260504150902 | 64 | 70 | 4.3 | 0.0 | 0.00 | 0.00 | 0.00 | 62 | 1013.3 |
| 20260504150801 | 64 | 70 | 4.3 | 0.0 | 0.00 | 0.00 | 0.00 | 62 | 1013.2 |
| 20260504150702 | 65 | 67 | 3.5 | 0.0 | 0.00 | 0.00 | 0.00 | 63 | 1013.2 |
| 20260504150601 | 65 | 67 | 3.5 | 0.0 | 0.00 | 0.00 | 0.00 | 63 | 1013.2 |
| 20260504150502 | 65 | 62 | 5.2 | 0.0 | 0.00 | 0.00 | 0.00 | 59 | 1013.2 |
| 20260504150401 | 65 | 62 | 5.2 | 0.0 | 0.00 | 0.00 | 0.00 | 59 | 1013.2 |
| 20260504150302 | 65 | 12 | 0.0 | 0.0 | 0.00 | 0.00 | 0.00 | 58 | 1013.2 |
| 20260504150202 | 65 | 12 | 0.0 | 0.0 | 0.00 | 0.00 | 0.00 | 58 | 1013.2 |
| 20260504141302 | 67 | 70 | 5.2 | 0.0 | 0.00 | 0.00 | 0.00 | 60 | 1013.6 |
| 20260504141202 | 67 | 62 | 7.0 | 0.0 | 0.00 | 0.00 | 0.00 | 60 | 1013.6 |
| 20260504141102 | 67 | 62 | 7.0 | 0.0 | 0.00 | 0.00 | 0.00 | 60 | 1013.6 |
| 20260504141002 | 67 | 62 | 7.0 | 0.0 | 0.00 | 0.00 | 0.00 | 60 | 1013.6 |
| 20260504140901 | 67 | 72 | 11.3 | 0.0 | 0.00 | 0.00 | 0.00 | 60 | 1013.6 |
| 20260504140802 | 66 | 10 | 3.5 | 0.0 | 0.00 | 0.00 | 0.00 | 61 | 1013.6 |
| 20260504140701 | 66 | 10 | 3.5 | 0.0 | 0.00 | 0.00 | 0.00 | 61 | 1013.6 |
| 20260504140602 | 66 | 10 | 3.5 | 0.0 | 0.00 | 0.00 | 0.00 | 61 | 1013.6 |
| 20260504140501 | 66 | 10 | 3.5 | 0.0 | 0.00 | 0.00 | 0.00 | 61 | 1013.7 |
| 20260504140402 | 66 | 10 | 3.5 | 0.0 | 0.00 | 0.00 | 0.00 | 61 | 1013.6 |
| 20260504140301 | 66 | 10 | 3.5 | 0.0 | 0.00 | 0.00 | 0.00 | 61 | 1013.6 |
| 20260504140202 | 65 | 62 | 0.0 | 0.0 | 0.00 | 0.00 | 0.00 | 60 | 1013.6 |
| 20260504130802 | 63 | 55 | 3.5 | 0.0 | 0.00 | 0.00 | 0.00 | 64 | 1013.9 |
| 20260504130702 | 63 | 55 | 3.5 | 0.0 | 0.00 | 0.00 | 0.00 | 64 | 1014.0 |
| 20260504130601 | 64 | 45 | 4.3 | 0.0 | 0.00 | 0.00 | 0.00 | 63 | 1014.0 |
| 20260504130502 | 64 | 45 | 4.3 | 0.0 | 0.00 | 0.00 | 0.00 | 63 | 1014.0 |
| 20260504130401 | 64 | 45 | 4.3 | 0.0 | 0.00 | 0.00 | 0.00 | 63 | 1014.0 |
| 20260504130302 | 64 | 7 | 0.0 | 0.0 | 0.00 | 0.00 | 0.00 | 63 | 1014.0 |
| 20260504130201 | 64 | 7 | 0.0 | 0.0 | 0.00 | 0.00 | 0.00 | 63 | 1014.0 |
| 20260504120302 | 62 | 32 | 5.2 | 0.0 | 0.00 | 0.00 | 0.00 | 69 | 1014.4 |
| 20260504120202 | 63 | 30 | 7.8 | 0.0 | 0.00 | 0.00 | 0.00 | 68 | 1014.3 |
| 20260504110702 | 60 | 25 | 6.1 | 0.0 | 0.00 | 0.00 | 0.00 | 74 | 1014.5 |
| 20260504110601 | 60 | 25 | 6.1 | 0.0 | 0.00 | 0.00 | 0.00 | 74 | 1014.5 |
| 20260504110502 | 60 | 25 | 6.1 | 0.0 | 0.00 | 0.00 | 0.00 | 74 | 1014.5 |
| 20260504110402 | 60 | 37 | 5.2 | 0.0 | 0.00 | 0.00 | 0.00 | 73 | 1014.5 |
| 20260504110302 | 60 | 37 | 5.2 | 0.0 | 0.00 | 0.00 | 0.00 | 73 | 1014.6 |
| 20260504110202 | 60 | 57 | 5.2 | 0.0 | 0.00 | 0.00 | 0.00 | 73 | 1014.5 |
| 20260504100602 | 61 | 20 | 5.2 | 0.0 | 0.00 | 0.00 | 0.00 | 74 | 1014.9 |
| 20260504100502 | 61 | 20 | 5.2 | 0.0 | 0.00 | 0.00 | 0.00 | 74 | 1014.9 |
| 20260504100402 | 61 | 20 | 5.2 | 0.0 | 0.00 | 0.00 | 0.00 | 74 | 1014.9 |
| 20260504100302 | 61 | 27 | 5.2 | 0.0 | 0.00 | 0.00 | 0.00 | 75 | 1014.9 |
| 20260504100201 | 61 | 32 | 13.0 | 0.0 | 0.00 | 0.00 | 0.00 | 75 | 1014.9 |
| 20260504082002 | 55 | 67 | 6.1 | 0.0 | 0.00 | 0.00 | 0.00 | 80 | 1015.1 |
| 20260504081902 | 55 | 67 | 6.1 | 0.0 | 0.00 | 0.00 | 0.00 | 80 | 1015.1 |
| 20260504081802 | 55 | 67 | 6.1 | 0.0 | 0.00 | 0.00 | 0.00 | 80 | 1015.1 |
| 20260504081702 | 55 | 45 | 7.0 | 0.0 | 0.00 | 0.00 | 0.00 | 80 | 1015.1 |
| 20260504081601 | 55 | 45 | 7.0 | 0.0 | 0.00 | 0.00 | 0.00 | 80 | 1015.1 |
| 20260504081502 | 55 | 45 | 7.0 | 0.0 | 0.00 | 0.00 | 0.00 | 80 | 1015.1 |
| 20260504081401 | 55 | 45 | 4.3 | 0.0 | 0.00 | 0.00 | 0.00 | 79 | 1015.1 |
| 20260504081302 | 55 | 45 | 4.3 | 0.0 | 0.00 | 0.00 | 0.00 | 79 | 1015.1 |
| 20260504081202 | 55 | 57 | 5.2 | 0.0 | 0.00 | 0.00 | 0.00 | 80 | 1015.1 |
| 20260504081102 | 55 | 57 | 5.2 | 0.0 | 0.00 | 0.00 | 0.00 | 80 | 1015.1 |
| 20260504081002 | 55 | 57 | 5.2 | 0.0 | 0.00 | 0.00 | 0.00 | 80 | 1015.1 |
| 20260504080901 | 55 | 30 | 7.0 | 0.0 | 0.00 | 0.00 | 0.00 | 79 | 1015.1 |
| 20260504080802 | 55 | 30 | 7.0 | 0.0 | 0.00 | 0.00 | 0.00 | 79 | 1015.1 |
| 20260504080701 | 55 | 30 | 7.0 | 0.0 | 0.00 | 0.00 | 0.00 | 79 | 1015.1 |
| 20260504080602 | 55 | 30 | 7.0 | 0.0 | 0.00 | 0.00 | 0.00 | 79 | 1015.1 |
| 20260504080502 | 55 | 30 | 7.0 | 0.0 | 0.00 | 0.00 | 0.00 | 79 | 1015.1 |
| 20260504080402 | 55 | 30 | 7.0 | 0.0 | 0.00 | 0.00 | 0.00 | 79 | 1015.1 |
| 20260504080302 | 55 | 30 | 7.0 | 0.0 | 0.00 | 0.00 | 0.00 | 79 | 1015.1 |
| 20260504080201 | 55 | 30 | 7.0 | 0.0 | 0.00 | 0.00 | 0.00 | 79 | 1015.1 |
| 20260504070402 | 56 | 57 | 5.2 | 0.0 | 0.00 | 0.00 | 0.00 | 79 | 1014.3 |
| 20260504070301 | 55 | 60 | 5.2 | 0.0 | 0.00 | 0.00 | 0.00 | 78 | 1014.3 |
| 20260504070202 | 55 | 60 | 5.2 | 0.0 | 0.00 | 0.00 | 0.00 | 78 | 1014.2 |
| 20260504060202 | 53 | 32 | 5.2 | 0.0 | 0.00 | 0.00 | 0.00 | 78 | 1013.9 |
| 20260504050602 | 52 | 40 | 4.3 | 0.0 | 0.00 | 0.00 | 0.00 | 79 | 1013.6 |
| 20260504050501 | 52 | 40 | 4.3 | 0.0 | 0.00 | 0.00 | 0.00 | 79 | 1013.6 |
| 20260504050402 | 52 | 40 | 4.3 | 0.0 | 0.00 | 0.00 | 0.00 | 79 | 1013.6 |
| 20260504050301 | 52 | 37 | 5.2 | 0.0 | 0.00 | 0.00 | 0.00 | 78 | 1013.6 |
| 20260504050202 | 52 | 37 | 5.2 | 0.0 | 0.00 | 0.00 | 0.00 | 78 | 1013.6 |
| 20260504050002 | 52 | 22 | 4.3 | 0.0 | 0.00 | 0.00 | 0.00 | 78 | 1013.6 |
| 20260504045902 | 52 | 27 | 5.2 | 0.0 | 0.00 | 0.00 | 0.00 | 78 | 1013.6 |
| 20260504045801 | 52 | 27 | 5.2 | 0.0 | 0.00 | 0.00 | 0.00 | 78 | 1013.6 |
| 20260504045702 | 52 | 27 | 5.2 | 0.0 | 0.00 | 0.00 | 0.00 | 78 | 1013.6 |
| 20260504045601 | 52 | 37 | 4.3 | 0.0 | 0.00 | 0.00 | 0.00 | 78 | 1013.6 |
| 20260504045502 | 52 | 37 | 4.3 | 0.0 | 0.00 | 0.00 | 0.00 | 78 | 1013.6 |
| 20260504045402 | 52 | 42 | 4.3 | 0.0 | 0.00 | 0.00 | 0.00 | 78 | 1013.6 |
| 20260504045304 | 52 | 42 | 4.3 | 0.0 | 0.00 | 0.00 | 0.00 | 78 | 1013.5 |
| 20260504045202 | 52 | 42 | 4.3 | 0.0 | 0.00 | 0.00 | 0.00 | 78 | 1013.5 |
| 20260504045101 | 52 | 37 | 5.2 | 0.0 | 0.00 | 0.00 | 0.00 | 78 | 1013.6 |
| 20260504045002 | 52 | 37 | 5.2 | 0.0 | 0.00 | 0.00 | 0.00 | 78 | 1013.6 |
| 20260504044901 | 52 | 37 | 5.2 | 0.0 | 0.00 | 0.00 | 0.00 | 78 | 1013.6 |
| 20260504044802 | 52 | 40 | 3.5 | 0.0 | 0.00 | 0.00 | 0.00 | 78 | 1013.6 |
| 20260504044702 | 52 | 40 | 3.5 | 0.0 | 0.00 | 0.00 | 0.00 | 78 | 1013.6 |
| 20260504044602 | 52 | 40 | 3.5 | 0.0 | 0.00 | 0.00 | 0.00 | 78 | 1013.6 |
| 20260504044502 | 52 | 40 | 3.5 | 0.0 | 0.00 | 0.00 | 0.00 | 78 | 1013.5 |
| 20260504044401 | 52 | 40 | 3.5 | 0.0 | 0.00 | 0.00 | 0.00 | 78 | 1013.5 |
| 20260504044302 | 52 | 47 | 4.3 | 0.0 | 0.00 | 0.00 | 0.00 | 78 | 1013.6 |
| 20260504044201 | 52 | 47 | 4.3 | 0.0 | 0.00 | 0.00 | 0.00 | 78 | 1013.6 |
| 20260504044102 | 52 | 47 | 4.3 | 0.0 | 0.00 | 0.00 | 0.00 | 78 | 1013.6 |
| 20260504044002 | 52 | 50 | 5.2 | 0.0 | 0.00 | 0.00 | 0.00 | 78 | 1013.6 |
| 20260504043902 | 52 | 50 | 5.2 | 0.0 | 0.00 | 0.00 | 0.00 | 78 | 1013.6 |
| 20260504043802 | 52 | 50 | 4.3 | 0.0 | 0.00 | 0.00 | 0.00 | 78 | 1013.7 |
| 20260504043701 | 52 | 50 | 4.3 | 0.0 | 0.00 | 0.00 | 0.00 | 78 | 1013.6 |
| 20260504043602 | 52 | 50 | 4.3 | 0.0 | 0.00 | 0.00 | 0.00 | 78 | 1013.7 |
| 20260504043501 | 52 | 50 | 4.3 | 0.0 | 0.00 | 0.00 | 0.00 | 78 | 1013.7 |
| 20260504043402 | 52 | 50 | 4.3 | 0.0 | 0.00 | 0.00 | 0.00 | 78 | 1013.7 |
| 20260504043301 | 52 | 45 | 4.3 | 0.0 | 0.00 | 0.00 | 0.00 | 78 | 1013.6 |
| 20260504043202 | 52 | 45 | 4.3 | 0.0 | 0.00 | 0.00 | 0.00 | 78 | 1013.6 |
| 20260504043102 | 52 | 45 | 4.3 | 0.0 | 0.00 | 0.00 | 0.00 | 78 | 1013.6 |
| 20260504043002 | 52 | 47 | 5.2 | 0.0 | 0.00 | 0.00 | 0.00 | 78 | 1013.7 |
| 20260504042902 | 52 | 47 | 5.2 | 0.0 | 0.00 | 0.00 | 0.00 | 78 | 1013.6 |
| 20260504042801 | 52 | 47 | 5.2 | 0.0 | 0.00 | 0.00 | 0.00 | 78 | 1013.6 |
| 20260504042702 | 52 | 47 | 5.2 | 0.0 | 0.00 | 0.00 | 0.00 | 78 | 1013.6 |
| 20260504042601 | 52 | 45 | 4.3 | 0.0 | 0.00 | 0.00 | 0.00 | 78 | 1013.5 |
| 20260504042502 | 52 | 45 | 4.3 | 0.0 | 0.00 | 0.00 | 0.00 | 78 | 1013.6 |
| 20260504042402 | 52 | 45 | 4.3 | 0.0 | 0.00 | 0.00 | 0.00 | 78 | 1013.5 |
| 20260504042304 | 52 | 50 | 7.0 | 0.0 | 0.00 | 0.00 | 0.00 | 78 | 1013.6 |
| 20260504042201 | 52 | 50 | 7.0 | 0.0 | 0.00 | 0.00 | 0.00 | 78 | 1013.6 |
| 20260504042101 | 52 | 50 | 7.0 | 0.0 | 0.00 | 0.00 | 0.00 | 78 | 1013.5 |
| 20260504042002 | 52 | 50 | 7.0 | 0.0 | 0.00 | 0.00 | 0.00 | 78 | 1013.5 |
| 20260504041901 | 52 | 50 | 7.0 | 0.0 | 0.00 | 0.00 | 0.00 | 78 | 1013.5 |
| 20260504041802 | 52 | 50 | 7.0 | 0.0 | 0.00 | 0.00 | 0.00 | 78 | 1013.5 |
| 20260504041701 | 52 | 50 | 7.0 | 0.0 | 0.00 | 0.00 | 0.00 | 78 | 1013.5 |
| 20260504041602 | 52 | 50 | 7.0 | 0.0 | 0.00 | 0.00 | 0.00 | 78 | 1013.4 |
| 20260504041501 | 52 | 35 | 4.3 | 0.0 | 0.00 | 0.00 | 0.00 | 78 | 1013.5 |
| 20260504041402 | 52 | 35 | 4.3 | 0.0 | 0.00 | 0.00 | 0.00 | 78 | 1013.5 |
| 20260504041302 | 52 | 37 | 5.2 | 0.0 | 0.00 | 0.00 | 0.00 | 77 | 1013.4 |
| 20260504041201 | 52 | 37 | 5.2 | 0.0 | 0.00 | 0.00 | 0.00 | 77 | 1013.5 |
| 20260504041102 | 52 | 37 | 5.2 | 0.0 | 0.00 | 0.00 | 0.00 | 77 | 1013.4 |
| 20260504041001 | 53 | 42 | 5.2 | 0.0 | 0.00 | 0.00 | 0.00 | 77 | 1013.5 |
| 20260504040902 | 53 | 42 | 5.2 | 0.0 | 0.00 | 0.00 | 0.00 | 77 | 1013.5 |
| 20260504040801 | 52 | 50 | 5.2 | 0.0 | 0.00 | 0.00 | 0.00 | 78 | 1013.5 |
| 20260504040702 | 52 | 50 | 5.2 | 0.0 | 0.00 | 0.00 | 0.00 | 78 | 1013.5 |
| 20260504040601 | 52 | 50 | 5.2 | 0.0 | 0.00 | 0.00 | 0.00 | 78 | 1013.5 |
| 20260504040502 | 52 | 50 | 4.3 | 0.0 | 0.00 | 0.00 | 0.00 | 77 | 1013.5 |
| 20260504040401 | 52 | 50 | 4.3 | 0.0 | 0.00 | 0.00 | 0.00 | 77 | 1013.5 |
| 20260504040301 | 52 | 55 | 7.0 | 0.0 | 0.00 | 0.00 | 0.00 | 77 | 1013.5 |
| 20260504040202 | 52 | 55 | 7.0 | 0.0 | 0.00 | 0.00 | 0.00 | 77 | 1013.5 |
| 20260504040002 | 53 | 55 | 5.2 | 0.0 | 0.00 | 0.00 | 0.00 | 77 | 1013.4 |
| 20260504035901 | 53 | 55 | 5.2 | 0.0 | 0.00 | 0.00 | 0.00 | 77 | 1013.5 |
| 20260504035802 | 52 | 40 | 6.1 | 0.0 | 0.00 | 0.00 | 0.00 | 77 | 1013.5 |
| 20260504035702 | 52 | 40 | 6.1 | 0.0 | 0.00 | 0.00 | 0.00 | 77 | 1013.5 |
| 20260504035602 | 52 | 40 | 6.1 | 0.0 | 0.00 | 0.00 | 0.00 | 77 | 1013.4 |
| 20260504035502 | 52 | 37 | 6.1 | 0.0 | 0.00 | 0.00 | 0.00 | 77 | 1013.4 |
| 20260504035401 | 52 | 37 | 6.1 | 0.0 | 0.00 | 0.00 | 0.00 | 77 | 1013.5 |
| 20260504035302 | 52 | 42 | 5.2 | 0.0 | 0.00 | 0.00 | 0.00 | 78 | 1013.5 |
| 20260504035201 | 52 | 42 | 5.2 | 0.0 | 0.00 | 0.00 | 0.00 | 78 | 1013.4 |
| 20260504035102 | 52 | 42 | 5.2 | 0.0 | 0.00 | 0.00 | 0.00 | 78 | 1013.4 |
| 20260504035001 | 52 | 35 | 4.3 | 0.0 | 0.00 | 0.00 | 0.00 | 78 | 1013.4 |
| 20260504034902 | 52 | 35 | 4.3 | 0.0 | 0.00 | 0.00 | 0.00 | 78 | 1013.5 |
| 20260504034802 | 52 | 35 | 4.3 | 0.0 | 0.00 | 0.00 | 0.00 | 78 | 1013.4 |
| 20260504034702 | 52 | 35 | 4.3 | 0.0 | 0.00 | 0.00 | 0.00 | 78 | 1013.4 |
| 20260504034602 | 52 | 35 | 4.3 | 0.0 | 0.00 | 0.00 | 0.00 | 78 | 1013.4 |
| 20260504034502 | 52 | 40 | 5.2 | 0.0 | 0.00 | 0.00 | 0.00 | 78 | 1013.4 |
| 20260504034402 | 52 | 40 | 5.2 | 0.0 | 0.00 | 0.00 | 0.00 | 78 | 1013.4 |
| 20260504034301 | 52 | 40 | 4.3 | 0.0 | 0.00 | 0.00 | 0.00 | 78 | 1013.4 |
| 20260504034202 | 52 | 40 | 4.3 | 0.0 | 0.00 | 0.00 | 0.00 | 78 | 1013.4 |
| 20260504034101 | 52 | 40 | 4.3 | 0.0 | 0.00 | 0.00 | 0.00 | 78 | 1013.4 |
| 20260504034002 | 52 | 35 | 4.3 | 0.0 | 0.00 | 0.00 | 0.00 | 78 | 1013.4 |
| 20260504033901 | 52 | 35 | 4.3 | 0.0 | 0.00 | 0.00 | 0.00 | 78 | 1013.4 |
| 20260504033802 | 52 | 35 | 4.3 | 0.0 | 0.00 | 0.00 | 0.00 | 78 | 1013.4 |
| 20260504033701 | 52 | 47 | 4.3 | 0.0 | 0.00 | 0.00 | 0.00 | 78 | 1013.4 |
| 20260504033602 | 52 | 47 | 4.3 | 0.0 | 0.00 | 0.00 | 0.00 | 78 | 1013.4 |
| 20260504033502 | 52 | 47 | 4.3 | 0.0 | 0.00 | 0.00 | 0.00 | 78 | 1013.4 |
| 20260504033401 | 52 | 47 | 4.3 | 0.0 | 0.00 | 0.00 | 0.00 | 78 | 1013.4 |
| 20260504033302 | 52 | 67 | 4.3 | 0.0 | 0.00 | 0.00 | 0.00 | 78 | 1013.3 |
| 20260504033201 | 52 | 67 | 4.3 | 0.0 | 0.00 | 0.00 | 0.00 | 78 | 1013.3 |
| 20260504033102 | 52 | 67 | 4.3 | 0.0 | 0.00 | 0.00 | 0.00 | 78 | 1013.3 |
| 20260504033001 | 52 | 47 | 4.3 | 0.0 | 0.00 | 0.00 | 0.00 | 78 | 1013.3 |
| 20260504032902 | 52 | 47 | 4.3 | 0.0 | 0.00 | 0.00 | 0.00 | 78 | 1013.3 |
| 20260504032802 | 52 | 47 | 4.3 | 0.0 | 0.00 | 0.00 | 0.00 | 78 | 1013.3 |
| 20260504032702 | 52 | 47 | 4.3 | 0.0 | 0.00 | 0.00 | 0.00 | 78 | 1013.3 |
| 20260504032602 | 52 | 47 | 4.3 | 0.0 | 0.00 | 0.00 | 0.00 | 78 | 1013.3 |
| 20260504032501 | 52 | 47 | 4.3 | 0.0 | 0.00 | 0.00 | 0.00 | 78 | 1013.3 |
| 20260504032402 | 52 | 47 | 4.3 | 0.0 | 0.00 | 0.00 | 0.00 | 78 | 1013.3 |
| 20260504032303 | 52 | 47 | 4.3 | 0.0 | 0.00 | 0.00 | 0.00 | 78 | 1013.3 |
| 20260504032202 | 52 | 47 | 4.3 | 0.0 | 0.00 | 0.00 | 0.00 | 78 | 1013.3 |
| 20260504032102 | 52 | 47 | 4.3 | 0.0 | 0.00 | 0.00 | 0.00 | 78 | 1013.3 |
| 20260504032002 | 52 | 37 | 5.2 | 0.0 | 0.00 | 0.00 | 0.00 | 78 | 1013.3 |
| 20260504031902 | 52 | 37 | 5.2 | 0.0 | 0.00 | 0.00 | 0.00 | 78 | 1013.3 |
| 20260504031801 | 52 | 37 | 5.2 | 0.0 | 0.00 | 0.00 | 0.00 | 78 | 1013.3 |
| 20260504031702 | 52 | 37 | 3.5 | 0.0 | 0.00 | 0.00 | 0.00 | 78 | 1013.3 |
| 20260504031601 | 52 | 37 | 3.5 | 0.0 | 0.00 | 0.00 | 0.00 | 78 | 1013.2 |
| 20260504031502 | 52 | 37 | 3.5 | 0.0 | 0.00 | 0.00 | 0.00 | 78 | 1013.3 |
| 20260504031401 | 51 | 55 | 3.5 | 0.0 | 0.00 | 0.00 | 0.00 | 78 | 1013.3 |
| 20260504031302 | 51 | 55 | 3.5 | 0.0 | 0.00 | 0.00 | 0.00 | 78 | 1013.3 |
| 20260504031202 | 51 | 60 | 3.5 | 0.0 | 0.00 | 0.00 | 0.00 | 78 | 1013.4 |
| 20260504031102 | 51 | 60 | 3.5 | 0.0 | 0.00 | 0.00 | 0.00 | 78 | 1013.3 |
| 20260504031002 | 51 | 62 | 2.6 | 0.0 | 0.00 | 0.00 | 0.00 | 78 | 1013.3 |
| 20260504030901 | 51 | 62 | 2.6 | 0.0 | 0.00 | 0.00 | 0.00 | 78 | 1013.3 |
| 20260504030802 | 51 | 62 | 2.6 | 0.0 | 0.00 | 0.00 | 0.00 | 78 | 1013.3 |
| 20260504030701 | 51 | 57 | 3.5 | 0.0 | 0.00 | 0.00 | 0.00 | 78 | 1013.3 |
| 20260504030602 | 51 | 57 | 3.5 | 0.0 | 0.00 | 0.00 | 0.00 | 78 | 1013.4 |
| 20260504030501 | 51 | 57 | 3.5 | 0.0 | 0.00 | 0.00 | 0.00 | 78 | 1013.3 |
| 20260504030402 | 51 | 55 | 3.5 | 0.0 | 0.00 | 0.00 | 0.00 | 78 | 1013.3 |
| 20260504030302 | 51 | 55 | 3.5 | 0.0 | 0.00 | 0.00 | 0.00 | 78 | 1013.4 |
| 20260504030201 | 51 | 55 | 3.5 | 0.0 | 0.00 | 0.00 | 0.00 | 78 | 1013.4 |
| 20260504030001 | 51 | 57 | 4.3 | 0.0 | 0.00 | 0.00 | 0.00 | 79 | 1013.4 |
| 20260504025902 | 51 | 45 | 3.5 | 0.0 | 0.00 | 0.00 | 0.00 | 79 | 1013.4 |
| 20260504025802 | 51 | 45 | 3.5 | 0.0 | 0.00 | 0.00 | 0.00 | 79 | 1013.4 |
| 20260504025702 | 51 | 45 | 3.5 | 0.0 | 0.00 | 0.00 | 0.00 | 79 | 1013.3 |
| 20260504025602 | 51 | 57 | 4.3 | 0.0 | 0.00 | 0.00 | 0.00 | 79 | 1013.4 |
| 20260504025501 | 51 | 57 | 4.3 | 0.0 | 0.00 | 0.00 | 0.00 | 79 | 1013.4 |
| 20260504025402 | 51 | 50 | 3.5 | 0.0 | 0.00 | 0.00 | 0.00 | 79 | 1013.5 |
| 20260504025304 | 51 | 50 | 3.5 | 0.0 | 0.00 | 0.00 | 0.00 | 79 | 1013.4 |
| 20260504025202 | 51 | 50 | 3.5 | 0.0 | 0.00 | 0.00 | 0.00 | 79 | 1013.4 |
| 20260504025102 | 51 | 62 | 2.6 | 0.0 | 0.00 | 0.00 | 0.00 | 79 | 1013.5 |
| 20260504025002 | 51 | 62 | 2.6 | 0.0 | 0.00 | 0.00 | 0.00 | 79 | 1013.4 |
| 20260504024902 | 51 | 62 | 2.6 | 0.0 | 0.00 | 0.00 | 0.00 | 79 | 1013.4 |
| 20260504024801 | 51 | 62 | 2.6 | 0.0 | 0.00 | 0.00 | 0.00 | 79 | 1013.4 |
| 20260504024702 | 51 | 62 | 2.6 | 0.0 | 0.00 | 0.00 | 0.00 | 79 | 1013.4 |
| 20260504024601 | 51 | 55 | 3.5 | 0.0 | 0.00 | 0.00 | 0.00 | 79 | 1013.4 |
| 20260504024502 | 51 | 55 | 3.5 | 0.0 | 0.00 | 0.00 | 0.00 | 79 | 1013.5 |
| 20260504024401 | 51 | 47 | 3.5 | 0.0 | 0.00 | 0.00 | 0.00 | 79 | 1013.5 |
| 20260504024302 | 51 | 47 | 3.5 | 0.0 | 0.00 | 0.00 | 0.00 | 79 | 1013.5 |
| 20260504024201 | 51 | 47 | 3.5 | 0.0 | 0.00 | 0.00 | 0.00 | 79 | 1013.5 |
| 20260504024102 | 51 | 57 | 3.5 | 0.0 | 0.00 | 0.00 | 0.00 | 79 | 1013.5 |
| 20260504024002 | 51 | 57 | 3.5 | 0.0 | 0.00 | 0.00 | 0.00 | 79 | 1013.5 |
| 20260504023901 | 51 | 72 | 3.5 | 0.0 | 0.00 | 0.00 | 0.00 | 79 | 1013.4 |
| 20260504023802 | 51 | 72 | 3.5 | 0.0 | 0.00 | 0.00 | 0.00 | 79 | 1013.5 |
| 20260504023701 | 51 | 72 | 3.5 | 0.0 | 0.00 | 0.00 | 0.00 | 79 | 1013.4 |
| 20260504023602 | 51 | 45 | 4.3 | 0.0 | 0.00 | 0.00 | 0.00 | 79 | 1013.5 |
| 20260504023501 | 51 | 45 | 4.3 | 0.0 | 0.00 | 0.00 | 0.00 | 79 | 1013.5 |
| 20260504023401 | 51 | 45 | 4.3 | 0.0 | 0.00 | 0.00 | 0.00 | 79 | 1013.5 |
| 20260504023302 | 51 | 45 | 4.3 | 0.0 | 0.00 | 0.00 | 0.00 | 79 | 1013.5 |
| 20260504023201 | 51 | 45 | 4.3 | 0.0 | 0.00 | 0.00 | 0.00 | 79 | 1013.5 |
| 20260504023102 | 50 | 60 | 4.3 | 0.0 | 0.00 | 0.00 | 0.00 | 79 | 1013.5 |
| 20260504023002 | 50 | 60 | 4.3 | 0.0 | 0.00 | 0.00 | 0.00 | 79 | 1013.5 |
| 20260504022902 | 50 | 60 | 4.3 | 0.0 | 0.00 | 0.00 | 0.00 | 79 | 1013.6 |
| 20260504022802 | 50 | 67 | 3.5 | 0.0 | 0.00 | 0.00 | 0.00 | 79 | 1013.5 |
| 20260504022701 | 50 | 67 | 3.5 | 0.0 | 0.00 | 0.00 | 0.00 | 79 | 1013.5 |
| 20260504022602 | 50 | 62 | 3.5 | 0.0 | 0.00 | 0.00 | 0.00 | 79 | 1013.5 |
| 20260504022501 | 50 | 62 | 3.5 | 0.0 | 0.00 | 0.00 | 0.00 | 79 | 1013.5 |
| 20260504022402 | 50 | 67 | 3.5 | 0.0 | 0.00 | 0.00 | 0.00 | 79 | 1013.5 |
| 20260504022301 | 50 | 67 | 3.5 | 0.0 | 0.00 | 0.00 | 0.00 | 79 | 1013.5 |
| 20260504022202 | 50 | 67 | 3.5 | 0.0 | 0.00 | 0.00 | 0.00 | 79 | 1013.5 |
| 20260504022102 | 51 | 75 | 3.5 | 0.0 | 0.00 | 0.00 | 0.00 | 79 | 1013.5 |
| 20260504022001 | 51 | 75 | 3.5 | 0.0 | 0.00 | 0.00 | 0.00 | 79 | 1013.5 |
| 20260504021902 | 51 | 75 | 3.5 | 0.0 | 0.00 | 0.00 | 0.00 | 79 | 1013.5 |
| 20260504021801 | 51 | 77 | 4.3 | 0.0 | 0.00 | 0.00 | 0.00 | 79 | 1013.5 |
| 20260504021702 | 51 | 77 | 4.3 | 0.0 | 0.00 | 0.00 | 0.00 | 79 | 1013.5 |
| 20260504021602 | 51 | 72 | 4.3 | 0.0 | 0.00 | 0.00 | 0.00 | 79 | 1013.5 |
| 20260504021502 | 51 | 72 | 4.3 | 0.0 | 0.00 | 0.00 | 0.00 | 79 | 1013.5 |
| 20260504021401 | 51 | 70 | 3.5 | 0.0 | 0.00 | 0.00 | 0.00 | 79 | 1013.5 |
| 20260504021302 | 51 | 70 | 3.5 | 0.0 | 0.00 | 0.00 | 0.00 | 79 | 1013.5 |
| 20260504021202 | 51 | 70 | 3.5 | 0.0 | 0.00 | 0.00 | 0.00 | 79 | 1013.4 |
| 20260504021101 | 51 | 72 | 2.6 | 0.0 | 0.00 | 0.00 | 0.00 | 79 | 1013.5 |
| 20260504021002 | 51 | 72 | 2.6 | 0.0 | 0.00 | 0.00 | 0.00 | 79 | 1013.5 |
| 20260504020902 | 51 | 72 | 2.6 | 0.0 | 0.00 | 0.00 | 0.00 | 79 | 1013.5 |
| 20260504020802 | 51 | 75 | 4.3 | 0.0 | 0.00 | 0.00 | 0.00 | 79 | 1013.5 |
| 20260504020701 | 51 | 75 | 4.3 | 0.0 | 0.00 | 0.00 | 0.00 | 79 | 1013.5 |
| 20260504020601 | 51 | 75 | 4.3 | 0.0 | 0.00 | 0.00 | 0.00 | 79 | 1013.5 |
| 20260504020502 | 50 | 80 | 4.3 | 0.0 | 0.00 | 0.00 | 0.00 | 79 | 1013.5 |
| 20260504020401 | 50 | 80 | 4.3 | 0.0 | 0.00 | 0.00 | 0.00 | 79 | 1013.5 |
| 20260504020302 | 50 | 72 | 4.3 | 0.0 | 0.00 | 0.00 | 0.00 | 79 | 1013.6 |
| 20260504020201 | 50 | 72 | 4.3 | 0.0 | 0.00 | 0.00 | 0.00 | 79 | 1013.5 |
| 20260504020002 | 50 | 65 | 3.5 | 0.0 | 0.00 | 0.00 | 0.00 | 79 | 1013.5 |
| 20260504015902 | 50 | 65 | 3.5 | 0.0 | 0.00 | 0.00 | 0.00 | 79 | 1013.5 |
| 20260504015802 | 50 | 57 | 4.3 | 0.0 | 0.00 | 0.00 | 0.00 | 79 | 1013.5 |
| 20260504015701 | 50 | 57 | 4.3 | 0.0 | 0.00 | 0.00 | 0.00 | 79 | 1013.4 |
| 20260504015602 | 50 | 57 | 4.3 | 0.0 | 0.00 | 0.00 | 0.00 | 79 | 1013.4 |
| 20260504015502 | 50 | 57 | 3.5 | 0.0 | 0.00 | 0.00 | 0.00 | 79 | 1013.4 |
| 20260504015402 | 50 | 57 | 3.5 | 0.0 | 0.00 | 0.00 | 0.00 | 79 | 1013.4 |
| 20260504015301 | 50 | 70 | 3.5 | 0.0 | 0.00 | 0.00 | 0.00 | 78 | 1013.4 |
| 20260504015202 | 50 | 70 | 3.5 | 0.0 | 0.00 | 0.00 | 0.00 | 78 | 1013.3 |
| 20260504015102 | 50 | 80 | 3.5 | 0.0 | 0.00 | 0.00 | 0.00 | 78 | 1013.3 |
| 20260504015001 | 50 | 80 | 3.5 | 0.0 | 0.00 | 0.00 | 0.00 | 78 | 1013.3 |
| 20260504014902 | 50 | 80 | 3.5 | 0.0 | 0.00 | 0.00 | 0.00 | 78 | 1013.3 |
| 20260504014801 | 50 | 70 | 0.0 | 0.0 | 0.00 | 0.00 | 0.00 | 78 | 1013.3 |
| 20260504014702 | 50 | 70 | 0.0 | 0.0 | 0.00 | 0.00 | 0.00 | 78 | 1013.3 |
| 20260504014601 | 50 | 70 | 0.0 | 0.0 | 0.00 | 0.00 | 0.00 | 78 | 1013.3 |
| 20260504014502 | 51 | 82 | 5.2 | 0.0 | 0.00 | 0.00 | 0.00 | 77 | 1013.3 |
| 20260504014402 | 51 | 82 | 5.2 | 0.0 | 0.00 | 0.00 | 0.00 | 77 | 1013.3 |
| 20260504014302 | 51 | 82 | 5.2 | 0.0 | 0.00 | 0.00 | 0.00 | 77 | 1013.3 |
| 20260504014202 | 51 | 82 | 5.2 | 0.0 | 0.00 | 0.00 | 0.00 | 77 | 1013.2 |
| 20260504014101 | 51 | 82 | 5.2 | 0.0 | 0.00 | 0.00 | 0.00 | 77 | 1013.2 |
| 20260504014002 | 51 | 82 | 5.2 | 0.0 | 0.00 | 0.00 | 0.00 | 77 | 1013.2 |
| 20260504013901 | 51 | 82 | 5.2 | 0.0 | 0.00 | 0.00 | 0.00 | 77 | 1013.2 |
| 20260504013802 | 51 | 87 | 5.2 | 0.0 | 0.00 | 0.00 | 0.00 | 77 | 1013.2 |
| 20260504013701 | 51 | 87 | 5.2 | 0.0 | 0.00 | 0.00 | 0.00 | 77 | 1013.2 |
| 20260504013601 | 51 | 87 | 5.2 | 0.0 | 0.00 | 0.00 | 0.00 | 77 | 1013.2 |
| 20260504013502 | 51 | 82 | 4.3 | 0.0 | 0.00 | 0.00 | 0.00 | 77 | 1013.2 |
| 20260504013401 | 51 | 82 | 4.3 | 0.0 | 0.00 | 0.00 | 0.00 | 77 | 1013.2 |
| 20260504013302 | 51 | 82 | 4.3 | 0.0 | 0.00 | 0.00 | 0.00 | 77 | 1013.1 |
| 20260504013201 | 51 | 80 | 4.3 | 0.0 | 0.00 | 0.00 | 0.00 | 77 | 1013.1 |
| 20260504013102 | 51 | 80 | 4.3 | 0.0 | 0.00 | 0.00 | 0.00 | 77 | 1013.1 |
| 20260504013002 | 51 | 77 | 4.3 | 0.0 | 0.00 | 0.00 | 0.00 | 77 | 1013.1 |
| 20260504012901 | 51 | 77 | 4.3 | 0.0 | 0.00 | 0.00 | 0.00 | 77 | 1013.1 |
| 20260504012802 | 51 | 72 | 4.3 | 0.0 | 0.00 | 0.00 | 0.00 | 77 | 1013.2 |
| 20260504012701 | 51 | 72 | 4.3 | 0.0 | 0.00 | 0.00 | 0.00 | 77 | 1013.2 |
| 20260504012602 | 51 | 72 | 4.3 | 0.0 | 0.00 | 0.00 | 0.00 | 77 | 1013.2 |
| 20260504012501 | 51 | 72 | 4.3 | 0.0 | 0.00 | 0.00 | 0.00 | 77 | 1013.2 |
| 20260504012402 | 51 | 72 | 4.3 | 0.0 | 0.00 | 0.00 | 0.00 | 77 | 1013.2 |
| 20260504012304 | 51 | 72 | 4.3 | 0.0 | 0.00 | 0.00 | 0.00 | 77 | 1013.2 |
| 20260504012202 | 51 | 75 | 0.0 | 0.0 | 0.00 | 0.00 | 0.00 | 77 | 1013.2 |
| 20260504012102 | 51 | 75 | 0.0 | 0.0 | 0.00 | 0.00 | 0.00 | 77 | 1013.2 |
| 20260504012001 | 51 | 75 | 4.3 | 0.0 | 0.00 | 0.00 | 0.00 | 77 | 1013.2 |
| 20260504011902 | 51 | 75 | 4.3 | 0.0 | 0.00 | 0.00 | 0.00 | 77 | 1013.2 |
| 20260504011801 | 51 | 75 | 4.3 | 0.0 | 0.00 | 0.00 | 0.00 | 77 | 1013.2 |
| 20260504011702 | 51 | 75 | 4.3 | 0.0 | 0.00 | 0.00 | 0.00 | 77 | 1013.2 |
| 20260504011601 | 51 | 75 | 4.3 | 0.0 | 0.00 | 0.00 | 0.00 | 77 | 1013.3 |
| 20260504011502 | 51 | 72 | 4.3 | 0.0 | 0.00 | 0.00 | 0.00 | 76 | 1013.3 |
| 20260504011402 | 51 | 72 | 4.3 | 0.0 | 0.00 | 0.00 | 0.00 | 76 | 1013.4 |
| 20260504011302 | 52 | 65 | 4.3 | 0.0 | 0.00 | 0.00 | 0.00 | 75 | 1013.3 |
| 20260504011202 | 52 | 65 | 4.3 | 0.0 | 0.00 | 0.00 | 0.00 | 75 | 1013.4 |
| 20260504011101 | 52 | 65 | 4.3 | 0.0 | 0.00 | 0.00 | 0.00 | 75 | 1013.3 |
| 20260504011002 | 52 | 70 | 4.3 | 0.0 | 0.00 | 0.00 | 0.00 | 75 | 1013.3 |
| 20260504010901 | 52 | 70 | 4.3 | 0.0 | 0.00 | 0.00 | 0.00 | 75 | 1013.3 |
| 20260504010802 | 53 | 65 | 3.5 | 0.0 | 0.00 | 0.00 | 0.00 | 75 | 1013.4 |
| 20260504010702 | 53 | 65 | 3.5 | 0.0 | 0.00 | 0.00 | 0.00 | 75 | 1013.4 |
| 20260504010601 | 53 | 65 | 3.5 | 0.0 | 0.00 | 0.00 | 0.00 | 75 | 1013.3 |
| 20260504010502 | 53 | 70 | 4.3 | 0.0 | 0.00 | 0.00 | 0.00 | 74 | 1013.3 |
| 20260504010401 | 53 | 70 | 4.3 | 0.0 | 0.00 | 0.00 | 0.00 | 74 | 1013.3 |
| 20260504010302 | 53 | 57 | 4.3 | 0.0 | 0.00 | 0.00 | 0.00 | 74 | 1013.3 |
| 20260504010201 | 53 | 57 | 4.3 | 0.0 | 0.00 | 0.00 | 0.00 | 74 | 1013.3 |
| 20260504010002 | 53 | 57 | 4.3 | 0.0 | 0.00 | 0.00 | 0.00 | 74 | 1013.3 |
| 20260504005901 | 53 | 57 | 4.3 | 0.0 | 0.00 | 0.00 | 0.00 | 74 | 1013.3 |
| 20260504005802 | 53 | 50 | 3.5 | 0.0 | 0.00 | 0.00 | 0.00 | 73 | 1013.3 |
| 20260504005701 | 53 | 50 | 3.5 | 0.0 | 0.00 | 0.00 | 0.00 | 73 | 1013.3 |
| 20260504005602 | 53 | 50 | 3.5 | 0.0 | 0.00 | 0.00 | 0.00 | 73 | 1013.3 |
| 20260504005501 | 53 | 50 | 3.5 | 0.0 | 0.00 | 0.00 | 0.00 | 73 | 1013.3 |
| 20260504005402 | 53 | 50 | 3.5 | 0.0 | 0.00 | 0.00 | 0.00 | 73 | 1013.3 |
| 20260504005302 | 53 | 50 | 4.3 | 0.0 | 0.00 | 0.00 | 0.00 | 73 | 1013.4 |
| 20260504005202 | 53 | 50 | 4.3 | 0.0 | 0.00 | 0.00 | 0.00 | 73 | 1013.3 |
| 20260504005102 | 53 | 50 | 4.3 | 0.0 | 0.00 | 0.00 | 0.00 | 73 | 1013.3 |
| 20260504005001 | 53 | 45 | 5.2 | 0.0 | 0.00 | 0.00 | 0.00 | 73 | 1013.3 |
| 20260504004902 | 53 | 45 | 5.2 | 0.0 | 0.00 | 0.00 | 0.00 | 73 | 1013.3 |
| 20260504004802 | 53 | 45 | 5.2 | 0.0 | 0.00 | 0.00 | 0.00 | 73 | 1013.3 |
| 20260504004702 | 53 | 45 | 5.2 | 0.0 | 0.00 | 0.00 | 0.00 | 73 | 1013.3 |
| 20260504004601 | 53 | 45 | 5.2 | 0.0 | 0.00 | 0.00 | 0.00 | 73 | 1013.2 |
| 20260504004502 | 53 | 47 | 6.1 | 0.0 | 0.00 | 0.00 | 0.00 | 73 | 1013.3 |
| 20260504004402 | 53 | 47 | 6.1 | 0.0 | 0.00 | 0.00 | 0.00 | 73 | 1013.2 |
| 20260504004301 | 54 | 40 | 4.3 | 0.0 | 0.00 | 0.00 | 0.00 | 73 | 1013.3 |
| 20260504004202 | 54 | 40 | 4.3 | 0.0 | 0.00 | 0.00 | 0.00 | 73 | 1013.2 |
| 20260504004101 | 54 | 40 | 4.3 | 0.0 | 0.00 | 0.00 | 0.00 | 73 | 1013.2 |
| 20260504004002 | 54 | 45 | 5.2 | 0.0 | 0.00 | 0.00 | 0.00 | 72 | 1013.2 |
| 20260504003901 | 54 | 45 | 5.2 | 0.0 | 0.00 | 0.00 | 0.00 | 72 | 1013.2 |
| 20260504003802 | 54 | 45 | 5.2 | 0.0 | 0.00 | 0.00 | 0.00 | 72 | 1013.2 |
| 20260504003702 | 54 | 45 | 6.1 | 0.0 | 0.00 | 0.00 | 0.00 | 72 | 1013.2 |
| 20260504003601 | 54 | 45 | 6.1 | 0.0 | 0.00 | 0.00 | 0.00 | 72 | 1013.2 |
| 20260504003502 | 54 | 37 | 6.1 | 0.0 | 0.00 | 0.00 | 0.00 | 73 | 1013.2 |
| 20260504003401 | 54 | 37 | 6.1 | 0.0 | 0.00 | 0.00 | 0.00 | 73 | 1013.2 |
| 20260504003302 | 54 | 35 | 6.1 | 0.0 | 0.00 | 0.00 | 0.00 | 72 | 1013.2 |
| 20260504003201 | 54 | 35 | 6.1 | 0.0 | 0.00 | 0.00 | 0.00 | 72 | 1013.1 |
| 20260504003102 | 54 | 35 | 6.1 | 0.0 | 0.00 | 0.00 | 0.00 | 72 | 1013.2 |
| 20260504003002 | 54 | 30 | 6.1 | 0.0 | 0.00 | 0.00 | 0.00 | 73 | 1013.2 |
| 20260504002902 | 54 | 30 | 6.1 | 0.0 | 0.00 | 0.00 | 0.00 | 73 | 1013.2 |
| 20260504002802 | 54 | 30 | 6.1 | 0.0 | 0.00 | 0.00 | 0.00 | 73 | 1013.2 |
| 20260504002701 | 54 | 30 | 6.1 | 0.0 | 0.00 | 0.00 | 0.00 | 73 | 1013.2 |
| 20260504002602 | 54 | 30 | 6.1 | 0.0 | 0.00 | 0.00 | 0.00 | 73 | 1013.2 |
| 20260504002501 | 54 | 30 | 6.1 | 0.0 | 0.00 | 0.00 | 0.00 | 73 | 1013.2 |
| 20260504002402 | 54 | 30 | 6.1 | 0.0 | 0.00 | 0.00 | 0.00 | 73 | 1013.2 |
| 20260504002303 | 54 | 30 | 6.1 | 0.0 | 0.00 | 0.00 | 0.00 | 73 | 1013.2 |
| 20260504002102 | 53 | 35 | 7.8 | 0.0 | 0.00 | 0.00 | 0.00 | 74 | 1013.2 |
| 20260504002002 | 53 | 42 | 5.2 | 0.0 | 0.00 | 0.00 | 0.00 | 74 | 1013.2 |
| 20260504001902 | 53 | 42 | 5.2 | 0.0 | 0.00 | 0.00 | 0.00 | 74 | 1013.2 |
| 20260504001702 | 53 | 42 | 5.2 | 0.0 | 0.00 | 0.00 | 0.00 | 74 | 1013.2 |
| 20260504001601 | 53 | 42 | 5.2 | 0.0 | 0.00 | 0.00 | 0.00 | 74 | 1013.2 |
| 20260504001502 | 53 | 42 | 5.2 | 0.0 | 0.00 | 0.00 | 0.00 | 74 | 1013.2 |
| 20260504001401 | 53 | 42 | 5.2 | 0.0 | 0.00 | 0.00 | 0.00 | 74 | 1013.1 |
| 20260504001302 | 53 | 42 | 5.2 | 0.0 | 0.00 | 0.00 | 0.00 | 74 | 1013.2 |
| 20260504001202 | 53 | 37 | 5.2 | 0.0 | 0.00 | 0.00 | 0.00 | 74 | 1013.2 |
| 20260504001102 | 53 | 37 | 5.2 | 0.0 | 0.00 | 0.00 | 0.00 | 74 | 1013.1 |
| 20260504001002 | 53 | 42 | 5.2 | 0.0 | 0.00 | 0.00 | 0.00 | 74 | 1013.2 |
| 20260504000901 | 53 | 42 | 5.2 | 0.0 | 0.00 | 0.00 | 0.00 | 74 | 1013.2 |
| 20260504000802 | 53 | 42 | 5.2 | 0.0 | 0.00 | 0.00 | 0.00 | 74 | 1013.2 |
| 20260504000701 | 53 | 52 | 4.3 | 0.0 | 0.00 | 0.00 | 0.00 | 74 | 1013.2 |
| 20260504000602 | 53 | 52 | 4.3 | 0.0 | 0.00 | 0.00 | 0.00 | 74 | 1013.2 |
| 20260504000501 | 53 | 52 | 4.3 | 0.0 | 0.00 | 0.00 | 0.00 | 74 | 1013.2 |
| 20260504000402 | 53 | 42 | 3.5 | 0.0 | 0.00 | 0.00 | 0.00 | 74 | 1013.2 |
| 20260504000302 | 53 | 42 | 3.5 | 0.0 | 0.00 | 0.00 | 0.00 | 74 | 1013.2 |
| 20260504000201 | 53 | 42 | 3.5 | 0.0 | 0.00 | 0.00 | 0.00 | 74 | 1013.3 |
| 20260504000001 | 54 | 30 | 4.3 | 0.0 | 0.00 | 0.00 | 0.00 | 74 | 1013.2 |
| 20260503235902 | 54 | 37 | 4.3 | 0.0 | 0.00 | 0.00 | 0.00 | 73 | 1013.2 |
| 20260503235801 | 54 | 37 | 4.3 | 0.0 | 0.00 | 0.00 | 0.00 | 73 | 1013.2 |
| 20260503235701 | 54 | 37 | 4.3 | 0.0 | 0.00 | 0.00 | 0.00 | 73 | 1013.2 |
| 20260503235602 | 54 | 35 | 3.5 | 0.0 | 0.00 | 0.00 | 0.00 | 73 | 1013.2 |
| 20260503235501 | 54 | 35 | 3.5 | 0.0 | 0.00 | 0.00 | 0.00 | 73 | 1013.2 |
| 20260503235402 | 54 | 35 | 3.5 | 0.0 | 0.00 | 0.00 | 0.00 | 73 | 1013.2 |
| 20260503235301 | 54 | 35 | 3.5 | 0.0 | 0.00 | 0.00 | 0.00 | 73 | 1013.2 |
| 20260503235202 | 54 | 35 | 3.5 | 0.0 | 0.00 | 0.00 | 0.00 | 73 | 1013.2 |
| 20260503235102 | 54 | 35 | 4.3 | 0.0 | 0.00 | 0.00 | 0.00 | 74 | 1013.2 |
| 20260503235002 | 54 | 35 | 4.3 | 0.0 | 0.00 | 0.00 | 0.00 | 74 | 1013.3 |
| 20260503234902 | 53 | 55 | 5.2 | 0.0 | 0.00 | 0.00 | 0.00 | 74 | 1013.2 |
| 20260503234801 | 53 | 55 | 5.2 | 0.0 | 0.00 | 0.00 | 0.00 | 74 | 1013.3 |
| 20260503234702 | 53 | 55 | 5.2 | 0.0 | 0.00 | 0.00 | 0.00 | 74 | 1013.3 |
| 20260503234601 | 54 | 57 | 3.5 | 0.0 | 0.00 | 0.00 | 0.00 | 74 | 1013.3 |
| 20260503234502 | 54 | 57 | 3.5 | 0.0 | 0.00 | 0.00 | 0.00 | 74 | 1013.3 |
| 20260503234401 | 54 | 65 | 4.3 | 0.0 | 0.00 | 0.00 | 0.00 | 74 | 1013.3 |
| 20260503234302 | 54 | 65 | 4.3 | 0.0 | 0.00 | 0.00 | 0.00 | 74 | 1013.3 |
| 20260503234201 | 54 | 65 | 4.3 | 0.0 | 0.00 | 0.00 | 0.00 | 74 | 1013.3 |
| 20260503234102 | 54 | 70 | 3.5 | 0.0 | 0.00 | 0.00 | 0.00 | 73 | 1013.3 |
| 20260503234002 | 54 | 70 | 3.5 | 0.0 | 0.00 | 0.00 | 0.00 | 73 | 1013.3 |
| 20260503233901 | 54 | 75 | 4.3 | 0.0 | 0.00 | 0.00 | 0.00 | 73 | 1013.3 |
| 20260503233802 | 54 | 75 | 4.3 | 0.0 | 0.00 | 0.00 | 0.00 | 73 | 1013.3 |
| 20260503233701 | 54 | 75 | 4.3 | 0.0 | 0.00 | 0.00 | 0.00 | 73 | 1013.3 |
| 20260503233602 | 54 | 70 | 3.5 | 0.0 | 0.00 | 0.00 | 0.00 | 73 | 1013.3 |
| 20260503233501 | 54 | 70 | 3.5 | 0.0 | 0.00 | 0.00 | 0.00 | 73 | 1013.3 |
| 20260503233402 | 54 | 67 | 4.3 | 0.0 | 0.00 | 0.00 | 0.00 | 72 | 1013.3 |
| 20260503233301 | 54 | 67 | 4.3 | 0.0 | 0.00 | 0.00 | 0.00 | 72 | 1013.3 |
| 20260503233202 | 54 | 67 | 4.3 | 0.0 | 0.00 | 0.00 | 0.00 | 72 | 1013.3 |
| 20260503233102 | 54 | 67 | 4.3 | 0.0 | 0.00 | 0.00 | 0.00 | 72 | 1013.3 |
| 20260503232902 | 54 | 67 | 4.3 | 0.0 | 0.00 | 0.00 | 0.00 | 72 | 1013.3 |
| 20260503232801 | 54 | 70 | 3.5 | 0.0 | 0.00 | 0.00 | 0.00 | 72 | 1013.3 |
| 20260503232702 | 54 | 70 | 3.5 | 0.0 | 0.00 | 0.00 | 0.00 | 72 | 1013.3 |
| 20260503232601 | 55 | 65 | 4.3 | 0.0 | 0.00 | 0.00 | 0.00 | 71 | 1013.3 |
| 20260503232502 | 55 | 65 | 4.3 | 0.0 | 0.00 | 0.00 | 0.00 | 71 | 1013.3 |
| 20260503232402 | 55 | 60 | 4.3 | 0.0 | 0.00 | 0.00 | 0.00 | 71 | 1013.4 |
| 20260503232305 | 55 | 60 | 4.3 | 0.0 | 0.00 | 0.00 | 0.00 | 71 | 1013.4 |
| 20260503232202 | 55 | 60 | 4.3 | 0.0 | 0.00 | 0.00 | 0.00 | 71 | 1013.4 |
| 20260503232101 | 55 | 55 | 4.3 | 0.0 | 0.00 | 0.00 | 0.00 | 70 | 1013.4 |
| 20260503232002 | 55 | 55 | 4.3 | 0.0 | 0.00 | 0.00 | 0.00 | 70 | 1013.4 |
| 20260503231901 | 55 | 55 | 4.3 | 0.0 | 0.00 | 0.00 | 0.00 | 70 | 1013.4 |
| 20260503231802 | 55 | 60 | 4.3 | 0.0 | 0.00 | 0.00 | 0.00 | 70 | 1013.4 |
| 20260503231701 | 55 | 60 | 4.3 | 0.0 | 0.00 | 0.00 | 0.00 | 70 | 1013.4 |
| 20260503231602 | 55 | 55 | 5.2 | 0.0 | 0.00 | 0.00 | 0.00 | 70 | 1013.4 |
| 20260503231501 | 55 | 55 | 5.2 | 0.0 | 0.00 | 0.00 | 0.00 | 70 | 1013.4 |
| 20260503231402 | 55 | 55 | 6.1 | 0.0 | 0.00 | 0.00 | 0.00 | 70 | 1013.4 |
| 20260503231302 | 55 | 55 | 6.1 | 0.0 | 0.00 | 0.00 | 0.00 | 70 | 1013.4 |
| 20260503231202 | 55 | 55 | 6.1 | 0.0 | 0.00 | 0.00 | 0.00 | 70 | 1013.4 |
| 20260503231102 | 55 | 60 | 5.2 | 0.0 | 0.00 | 0.00 | 0.00 | 70 | 1013.4 |
| 20260503231001 | 55 | 60 | 5.2 | 0.0 | 0.00 | 0.00 | 0.00 | 70 | 1013.4 |
| 20260503230902 | 55 | 60 | 5.2 | 0.0 | 0.00 | 0.00 | 0.00 | 70 | 1013.4 |
| 20260503230801 | 55 | 65 | 4.3 | 0.0 | 0.00 | 0.00 | 0.00 | 69 | 1013.4 |
| 20260503230702 | 55 | 65 | 4.3 | 0.0 | 0.00 | 0.00 | 0.00 | 69 | 1013.4 |
| 20260503230602 | 55 | 65 | 4.3 | 0.0 | 0.00 | 0.00 | 0.00 | 69 | 1013.4 |
| 20260503230502 | 55 | 67 | 5.2 | 0.0 | 0.00 | 0.00 | 0.00 | 69 | 1013.4 |
| 20260503230402 | 55 | 67 | 5.2 | 0.0 | 0.00 | 0.00 | 0.00 | 69 | 1013.4 |
| 20260503230302 | 56 | 57 | 4.3 | 0.0 | 0.00 | 0.00 | 0.00 | 68 | 1013.4 |
| 20260503230202 | 56 | 57 | 4.3 | 0.0 | 0.00 | 0.00 | 0.00 | 68 | 1013.4 |
| 20260503230002 | 56 | 57 | 4.3 | 0.0 | 0.00 | 0.00 | 0.00 | 68 | 1013.5 |
| 20260503225901 | 56 | 57 | 4.3 | 0.0 | 0.00 | 0.00 | 0.00 | 68 | 1013.4 |
| 20260503225802 | 56 | 60 | 4.3 | 0.0 | 0.00 | 0.00 | 0.00 | 67 | 1013.4 |
| 20260503225702 | 56 | 60 | 4.3 | 0.0 | 0.00 | 0.00 | 0.00 | 67 | 1013.5 |
| 20260503225601 | 56 | 60 | 4.3 | 0.0 | 0.00 | 0.00 | 0.00 | 67 | 1013.5 |
| 20260503225502 | 56 | 55 | 5.2 | 0.0 | 0.00 | 0.00 | 0.00 | 67 | 1013.5 |
| 20260503225401 | 56 | 55 | 5.2 | 0.0 | 0.00 | 0.00 | 0.00 | 67 | 1013.5 |
| 20260503225304 | 56 | 60 | 5.2 | 0.0 | 0.00 | 0.00 | 0.00 | 67 | 1013.5 |
| 20260503225201 | 56 | 60 | 5.2 | 0.0 | 0.00 | 0.00 | 0.00 | 67 | 1013.6 |
| 20260503225102 | 56 | 60 | 4.3 | 0.0 | 0.00 | 0.00 | 0.00 | 66 | 1013.6 |
| 20260503225001 | 56 | 60 | 4.3 | 0.0 | 0.00 | 0.00 | 0.00 | 66 | 1013.6 |
| 20260503224902 | 56 | 60 | 4.3 | 0.0 | 0.00 | 0.00 | 0.00 | 66 | 1013.6 |
| 20260503224802 | 56 | 55 | 5.2 | 0.0 | 0.00 | 0.00 | 0.00 | 67 | 1013.6 |
| 20260503224701 | 56 | 55 | 5.2 | 0.0 | 0.00 | 0.00 | 0.00 | 67 | 1013.6 |
| 20260503224602 | 56 | 55 | 5.2 | 0.0 | 0.00 | 0.00 | 0.00 | 67 | 1013.6 |
| 20260503224501 | 56 | 55 | 4.3 | 0.0 | 0.00 | 0.00 | 0.00 | 66 | 1013.6 |
| 20260503224402 | 56 | 55 | 4.3 | 0.0 | 0.00 | 0.00 | 0.00 | 66 | 1013.6 |
| 20260503224301 | 56 | 55 | 4.3 | 0.0 | 0.00 | 0.00 | 0.00 | 66 | 1013.6 |
| 20260503224202 | 56 | 57 | 5.2 | 0.0 | 0.00 | 0.00 | 0.00 | 66 | 1013.6 |
| 20260503224101 | 56 | 57 | 5.2 | 0.0 | 0.00 | 0.00 | 0.00 | 66 | 1013.6 |
| 20260503224002 | 56 | 60 | 4.3 | 0.0 | 0.00 | 0.00 | 0.00 | 66 | 1013.6 |
| 20260503223901 | 56 | 60 | 4.3 | 0.0 | 0.00 | 0.00 | 0.00 | 66 | 1013.6 |
| 20260503223802 | 56 | 67 | 5.2 | 0.0 | 0.00 | 0.00 | 0.00 | 66 | 1013.6 |
| 20260503223702 | 56 | 67 | 5.2 | 0.0 | 0.00 | 0.00 | 0.00 | 66 | 1013.6 |
| 20260503223601 | 56 | 67 | 5.2 | 0.0 | 0.00 | 0.00 | 0.00 | 66 | 1013.7 |
| 20260503223502 | 57 | 67 | 6.1 | 0.0 | 0.00 | 0.00 | 0.00 | 65 | 1013.6 |
| 20260503223401 | 57 | 67 | 6.1 | 0.0 | 0.00 | 0.00 | 0.00 | 65 | 1013.6 |
| 20260503223302 | 57 | 67 | 6.1 | 0.0 | 0.00 | 0.00 | 0.00 | 65 | 1013.6 |
| 20260503223201 | 57 | 55 | 7.8 | 0.0 | 0.00 | 0.00 | 0.00 | 65 | 1013.6 |
| 20260503223102 | 57 | 55 | 7.8 | 0.0 | 0.00 | 0.00 | 0.00 | 65 | 1013.7 |
| 20260503223002 | 57 | 65 | 7.0 | 0.0 | 0.00 | 0.00 | 0.00 | 65 | 1013.6 |
| 20260503222902 | 57 | 65 | 7.0 | 0.0 | 0.00 | 0.00 | 0.00 | 65 | 1013.7 |
| 20260503222802 | 57 | 65 | 7.0 | 0.0 | 0.00 | 0.00 | 0.00 | 65 | 1013.7 |
| 20260503222701 | 57 | 65 | 7.0 | 0.0 | 0.00 | 0.00 | 0.00 | 65 | 1013.7 |
| 20260503222602 | 57 | 65 | 7.0 | 0.0 | 0.00 | 0.00 | 0.00 | 65 | 1013.7 |
| 20260503222501 | 57 | 65 | 5.2 | 0.0 | 0.00 | 0.00 | 0.00 | 64 | 1013.7 |
| 20260503222402 | 57 | 60 | 7.8 | 0.0 | 0.00 | 0.00 | 0.00 | 64 | 1013.8 |
| 20260503222301 | 57 | 60 | 7.8 | 0.0 | 0.00 | 0.00 | 0.00 | 64 | 1013.7 |
| 20260503222201 | 57 | 50 | 5.2 | 0.0 | 0.00 | 0.00 | 0.00 | 64 | 1013.8 |
| 20260503222102 | 57 | 50 | 5.2 | 0.0 | 0.00 | 0.00 | 0.00 | 64 | 1013.8 |
| 20260503222001 | 57 | 60 | 7.0 | 0.0 | 0.00 | 0.00 | 0.00 | 64 | 1013.7 |
| 20260503221902 | 57 | 60 | 7.0 | 0.0 | 0.00 | 0.00 | 0.00 | 64 | 1013.7 |
| 20260503221801 | 57 | 75 | 7.0 | 0.0 | 0.00 | 0.00 | 0.00 | 63 | 1013.8 |
| 20260503221702 | 57 | 75 | 7.0 | 0.0 | 0.00 | 0.00 | 0.00 | 63 | 1013.7 |
| 20260503221602 | 57 | 75 | 7.0 | 0.0 | 0.00 | 0.00 | 0.00 | 63 | 1013.8 |
| 20260503221502 | 57 | 67 | 8.7 | 0.0 | 0.00 | 0.00 | 0.00 | 64 | 1013.8 |
| 20260503221402 | 57 | 67 | 8.7 | 0.0 | 0.00 | 0.00 | 0.00 | 64 | 1013.8 |
| 20260503221302 | 58 | 67 | 6.1 | 0.0 | 0.00 | 0.00 | 0.00 | 63 | 1013.8 |
| 20260503221202 | 58 | 67 | 6.1 | 0.0 | 0.00 | 0.00 | 0.00 | 63 | 1013.8 |
| 20260503221101 | 58 | 67 | 6.1 | 0.0 | 0.00 | 0.00 | 0.00 | 63 | 1013.8 |
| 20260503221002 | 58 | 72 | 11.3 | 0.0 | 0.00 | 0.00 | 0.00 | 63 | 1013.8 |
| 20260503220901 | 58 | 72 | 11.3 | 0.0 | 0.00 | 0.00 | 0.00 | 63 | 1013.8 |
| 20260503220802 | 58 | 70 | 5.2 | 0.0 | 0.00 | 0.00 | 0.00 | 62 | 1013.8 |
| 20260503220702 | 58 | 80 | 9.6 | 0.0 | 0.00 | 0.00 | 0.00 | 62 | 1013.8 |
| 20260503220601 | 58 | 80 | 9.6 | 0.0 | 0.00 | 0.00 | 0.00 | 62 | 1013.8 |
| 20260503220502 | 58 | 80 | 9.6 | 0.0 | 0.00 | 0.00 | 0.00 | 62 | 1013.8 |
| 20260503220401 | 58 | 80 | 9.6 | 0.0 | 0.00 | 0.00 | 0.00 | 62 | 1013.7 |
| 20260503220302 | 58 | 75 | 10.4 | 0.0 | 0.00 | 0.00 | 0.00 | 62 | 1013.8 |
| 20260503220201 | 58 | 75 | 10.4 | 0.0 | 0.00 | 0.00 | 0.00 | 62 | 1013.8 |
| 20260503220002 | 58 | 67 | 13.0 | 0.0 | 0.00 | 0.00 | 0.00 | 62 | 1013.8 |
| 20260503215902 | 58 | 67 | 13.0 | 0.0 | 0.00 | 0.00 | 0.00 | 62 | 1013.7 |
| 20260503215802 | 58 | 72 | 9.6 | 0.0 | 0.00 | 0.00 | 0.00 | 62 | 1013.8 |
| 20260503215702 | 58 | 72 | 9.6 | 0.0 | 0.00 | 0.00 | 0.00 | 62 | 1013.8 |
| 20260503215602 | 58 | 72 | 9.6 | 0.0 | 0.00 | 0.00 | 0.00 | 62 | 1013.8 |
| 20260503215501 | 58 | 72 | 9.6 | 0.0 | 0.00 | 0.00 | 0.00 | 62 | 1013.8 |
| 20260503215402 | 58 | 72 | 9.6 | 0.0 | 0.00 | 0.00 | 0.00 | 62 | 1013.8 |
| 20260503215304 | 58 | 70 | 8.7 | 0.0 | 0.00 | 0.00 | 0.00 | 62 | 1013.8 |
| 20260503215202 | 58 | 70 | 8.7 | 0.0 | 0.00 | 0.00 | 0.00 | 62 | 1013.8 |
| 20260503215101 | 58 | 70 | 8.7 | 0.0 | 0.00 | 0.00 | 0.00 | 62 | 1013.8 |
| 20260503215002 | 58 | 60 | 7.0 | 0.0 | 0.00 | 0.00 | 0.00 | 62 | 1013.8 |
| 20260503214902 | 58 | 60 | 7.0 | 0.0 | 0.00 | 0.00 | 0.00 | 62 | 1013.8 |
| 20260503214801 | 58 | 60 | 7.0 | 0.0 | 0.00 | 0.00 | 0.00 | 62 | 1013.7 |
| 20260503214702 | 58 | 55 | 8.7 | 0.0 | 0.00 | 0.00 | 0.00 | 62 | 1013.7 |
| 20260503214601 | 58 | 55 | 8.7 | 0.0 | 0.00 | 0.00 | 0.00 | 62 | 1013.7 |
| 20260503214502 | 58 | 65 | 9.6 | 0.0 | 0.00 | 0.00 | 0.00 | 61 | 1013.7 |
| 20260503214401 | 58 | 65 | 9.6 | 0.0 | 0.00 | 0.00 | 0.00 | 61 | 1013.7 |
| 20260503214302 | 58 | 65 | 9.6 | 0.0 | 0.00 | 0.00 | 0.00 | 61 | 1013.8 |
| 20260503214202 | 58 | 65 | 10.4 | 0.0 | 0.00 | 0.00 | 0.00 | 61 | 1013.7 |
| 20260503214101 | 58 | 65 | 10.4 | 0.0 | 0.00 | 0.00 | 0.00 | 61 | 1013.7 |
| 20260503214002 | 58 | 67 | 11.3 | 0.0 | 0.00 | 0.00 | 0.00 | 61 | 1013.7 |
| 20260503213901 | 58 | 67 | 11.3 | 0.0 | 0.00 | 0.00 | 0.00 | 61 | 1013.8 |
| 20260503213802 | 58 | 67 | 11.3 | 0.0 | 0.00 | 0.00 | 0.00 | 61 | 1013.7 |
| 20260503213701 | 58 | 67 | 5.2 | 0.0 | 0.00 | 0.00 | 0.00 | 61 | 1013.7 |
| 20260503213602 | 58 | 70 | 7.0 | 0.0 | 0.00 | 0.00 | 0.00 | 61 | 1013.7 |
| 20260503213502 | 58 | 62 | 7.0 | 0.0 | 0.00 | 0.00 | 0.00 | 61 | 1013.7 |
| 20260503213402 | 58 | 62 | 7.0 | 0.0 | 0.00 | 0.00 | 0.00 | 61 | 1013.7 |
| 20260503213302 | 58 | 57 | 11.3 | 0.0 | 0.00 | 0.00 | 0.00 | 62 | 1013.7 |
| 20260503213201 | 58 | 57 | 11.3 | 0.0 | 0.00 | 0.00 | 0.00 | 62 | 1013.7 |
| 20260503213102 | 58 | 60 | 7.8 | 0.0 | 0.00 | 0.00 | 0.00 | 62 | 1013.7 |
| 20260503213001 | 58 | 65 | 5.2 | 0.0 | 0.00 | 0.00 | 0.00 | 62 | 1013.7 |
| 20260503212902 | 58 | 65 | 5.2 | 0.0 | 0.00 | 0.00 | 0.00 | 62 | 1013.7 |
| 20260503212801 | 58 | 65 | 11.3 | 0.0 | 0.00 | 0.00 | 0.00 | 62 | 1013.7 |
| 20260503212702 | 58 | 70 | 7.8 | 0.0 | 0.00 | 0.00 | 0.00 | 61 | 1013.7 |
| 20260503212602 | 58 | 70 | 7.8 | 0.0 | 0.00 | 0.00 | 0.00 | 61 | 1013.7 |
| 20260503212502 | 58 | 70 | 7.8 | 0.0 | 0.00 | 0.00 | 0.00 | 61 | 1013.7 |
| 20260503212402 | 58 | 65 | 7.0 | 0.0 | 0.00 | 0.00 | 0.00 | 61 | 1013.6 |
| 20260503212301 | 58 | 65 | 7.0 | 0.0 | 0.00 | 0.00 | 0.00 | 61 | 1013.6 |
| 20260503212202 | 58 | 70 | 6.1 | 0.0 | 0.00 | 0.00 | 0.00 | 60 | 1013.6 |
| 20260503212101 | 58 | 70 | 6.1 | 0.0 | 0.00 | 0.00 | 0.00 | 60 | 1013.6 |
| 20260503212002 | 58 | 70 | 7.8 | 0.0 | 0.00 | 0.00 | 0.00 | 60 | 1013.6 |
| 20260503211901 | 58 | 70 | 7.8 | 0.0 | 0.00 | 0.00 | 0.00 | 60 | 1013.6 |
| 20260503211802 | 58 | 70 | 7.8 | 0.0 | 0.00 | 0.00 | 0.00 | 60 | 1013.6 |
| 20260503211702 | 59 | 65 | 5.2 | 0.0 | 0.00 | 0.00 | 0.00 | 59 | 1013.6 |
| 20260503211601 | 59 | 65 | 5.2 | 0.0 | 0.00 | 0.00 | 0.00 | 59 | 1013.6 |
| 20260503211502 | 59 | 55 | 11.3 | 0.0 | 0.00 | 0.00 | 0.00 | 59 | 1013.6 |
| 20260503211401 | 59 | 55 | 11.3 | 0.0 | 0.00 | 0.00 | 0.00 | 59 | 1013.6 |
| 20260503211302 | 59 | 55 | 6.1 | 0.0 | 0.00 | 0.00 | 0.00 | 59 | 1013.6 |
| 20260503211201 | 59 | 52 | 7.0 | 0.0 | 0.00 | 0.00 | 0.00 | 59 | 1013.6 |
| 20260503211103 | 59 | 52 | 7.0 | 0.0 | 0.00 | 0.00 | 0.00 | 59 | 1013.6 |
| 20260503211001 | 59 | 52 | 7.0 | 0.0 | 0.00 | 0.00 | 0.00 | 59 | 1013.6 |
| 20260503210901 | 58 | 57 | 8.7 | 0.0 | 0.00 | 0.00 | 0.00 | 60 | 1013.6 |
| 20260503210802 | 58 | 57 | 8.7 | 0.0 | 0.00 | 0.00 | 0.00 | 60 | 1013.6 |
| 20260503210701 | 58 | 62 | 6.1 | 0.0 | 0.00 | 0.00 | 0.00 | 60 | 1013.6 |
| 20260503210602 | 58 | 62 | 6.1 | 0.0 | 0.00 | 0.00 | 0.00 | 60 | 1013.5 |
| 20260503210501 | 58 | 62 | 6.1 | 0.0 | 0.00 | 0.00 | 0.00 | 60 | 1013.6 |
| 20260503210402 | 58 | 62 | 4.3 | 0.0 | 0.00 | 0.00 | 0.00 | 61 | 1013.6 |
| 20260503210302 | 58 | 62 | 4.3 | 0.0 | 0.00 | 0.00 | 0.00 | 61 | 1013.6 |
| 20260503210202 | 58 | 62 | 4.3 | 0.0 | 0.00 | 0.00 | 0.00 | 61 | 1013.5 |
| 20260503210001 | 58 | 65 | 6.1 | 0.0 | 0.00 | 0.00 | 0.00 | 60 | 1013.5 |
| 20260503205902 | 59 | 62 | 5.2 | 0.0 | 0.00 | 0.00 | 0.00 | 59 | 1013.5 |
| 20260503205801 | 59 | 62 | 5.2 | 0.0 | 0.00 | 0.00 | 0.00 | 59 | 1013.6 |
| 20260503205702 | 59 | 62 | 5.2 | 0.0 | 0.00 | 0.00 | 0.00 | 59 | 1013.6 |
| 20260503205602 | 59 | 62 | 5.2 | 0.0 | 0.00 | 0.00 | 0.00 | 58 | 1013.6 |
| 20260503205502 | 59 | 62 | 5.2 | 0.0 | 0.00 | 0.00 | 0.00 | 58 | 1013.6 |
| 20260503205402 | 59 | 62 | 5.2 | 0.0 | 0.00 | 0.00 | 0.00 | 58 | 1013.5 |
| 20260503205303 | 59 | 62 | 5.2 | 0.0 | 0.00 | 0.00 | 0.00 | 58 | 1013.6 |
| 20260503205202 | 59 | 57 | 6.1 | 0.0 | 0.00 | 0.00 | 0.00 | 58 | 1013.5 |
| 20260503205101 | 59 | 62 | 7.8 | 0.0 | 0.00 | 0.00 | 0.00 | 58 | 1013.5 |
| 20260503205002 | 59 | 62 | 7.8 | 0.0 | 0.00 | 0.00 | 0.00 | 58 | 1013.5 |
| 20260503204902 | 59 | 62 | 7.8 | 0.0 | 0.00 | 0.00 | 0.00 | 58 | 1013.3 |
| 20260503204802 | 59 | 62 | 7.0 | 0.0 | 0.00 | 0.00 | 0.00 | 58 | 1013.6 |
| 20260503204702 | 59 | 62 | 7.0 | 0.0 | 0.00 | 0.00 | 0.00 | 58 | 1013.6 |
| 20260503204601 | 59 | 62 | 7.0 | 0.0 | 0.00 | 0.00 | 0.00 | 58 | 1013.6 |
| 20260503204502 | 59 | 62 | 7.0 | 0.0 | 0.00 | 0.00 | 0.00 | 58 | 1013.6 |
| 20260503204401 | 59 | 62 | 7.0 | 0.0 | 0.00 | 0.00 | 0.00 | 58 | 1013.6 |
| 20260503204302 | 59 | 65 | 6.1 | 0.0 | 0.00 | 0.00 | 0.00 | 58 | 1013.6 |
| 20260503204201 | 59 | 65 | 6.1 | 0.0 | 0.00 | 0.00 | 0.00 | 58 | 1013.6 |
| 20260503204102 | 60 | 72 | 6.1 | 0.0 | 0.00 | 0.00 | 0.00 | 57 | 1013.6 |
| 20260503204002 | 60 | 72 | 6.1 | 0.0 | 0.00 | 0.00 | 0.00 | 57 | 1013.6 |
| 20260503203902 | 60 | 75 | 13.0 | 0.0 | 0.00 | 0.00 | 0.00 | 56 | 1013.6 |
| 20260503203802 | 60 | 75 | 13.0 | 0.0 | 0.00 | 0.00 | 0.00 | 56 | 1013.5 |
| 20260503203702 | 60 | 75 | 13.0 | 0.0 | 0.00 | 0.00 | 0.00 | 56 | 1013.5 |
| 20260503203602 | 60 | 67 | 9.6 | 0.0 | 0.00 | 0.00 | 0.00 | 55 | 1013.5 |
| 20260503203501 | 60 | 67 | 9.6 | 0.0 | 0.00 | 0.00 | 0.00 | 55 | 1013.5 |
| 20260503203402 | 60 | 65 | 11.3 | 0.0 | 0.00 | 0.00 | 0.00 | 55 | 1013.5 |
| 20260503203301 | 60 | 65 | 11.3 | 0.0 | 0.00 | 0.00 | 0.00 | 55 | 1013.5 |
| 20260503203202 | 60 | 65 | 11.3 | 0.0 | 0.00 | 0.00 | 0.00 | 55 | 1013.6 |
| 20260503203101 | 60 | 65 | 11.3 | 0.0 | 0.00 | 0.00 | 0.00 | 55 | 1013.5 |
| 20260503203002 | 60 | 65 | 11.3 | 0.0 | 0.00 | 0.00 | 0.00 | 55 | 1013.5 |
| 20260503202902 | 60 | 65 | 7.0 | 0.0 | 0.00 | 0.00 | 0.00 | 55 | 1013.5 |